作者hicker (夏天腦袋容易熱當機....)
看板Baseball
標題[先發] MLB BAL @ SEA 陳偉殷先發
時間Tue Aug 11 09:03:05 2015
Baltimore Seattle
Orioles
Lake Jones Parra Mariners
1
Machado \
Cruz Jackson Gutierrez / 1
Marte
2
Parra \
Hardy Schoop / 2
Seager
3
Jones \
Marte Cano / 3
Cruz
4
Davis Machado Davis 4
Cano
5
Wieters Seager Montero 5
Gutierrez
6
Schoop \
陳偉殷 / 6
Jackson
7
Lake DH \
Nuno / DH 7
Montero
8
Hardy Wieters \ /
Trumbo 8
Trumbo
9
Joseph \ / 9
Zunino
Joseph
Zunino
民視 FSHD & 3HD直播
10點開打
--
※ 發信站: 批踢踢實業坊(ptt.cc), 來自: 36.229.126.212
※ 文章網址: https://webptt.com/m.aspx?n=bbs/Baseball/M.1439254988.A.A67.html
1F:推 clywin123: 推 08/11 09:03
2F:推 harrychen413: 嗚嗚 要補習不能看QQ 08/11 09:09
3F:推 A0911353036: 推 08/11 09:11
4F:推 cdpicker: 請文陳偉殷今天是本季第一次對上前隊友嗎 Cruz嗎? 08/11 09:13
5F:推 xyz4594: 看棒球比較重要啦 補習少去一天沒差 08/11 09:14
6F:推 speed1108: 本季對過水手一次唷..被Cruz尻一支2B..但也送1K 08/11 09:19
7F:推 cdpicker: @speed1108 謝謝你的回覆 08/11 09:20
8F:推 tnl0716: 蹺課就是要看陳偉殷阿 不然要幹嘛 08/11 09:21
9F:推 s66671122: 未打先猜,克魯茲兩分砲後殷仔回穩打線後半發威最後無 08/11 09:22
10F:→ s66671122: 關勝敗 08/11 09:22
11F:推 imblic106: 殷仔加油! 08/11 09:22
12F:→ GoldenWasabi: 韓文台是被砍了嗎?(偷渡中) 08/11 09:24
13F:推 liunwaiqoo: 陳生涯對美聯西區的成績是最好的,我殷利多 08/11 09:26
14F:→ liunwaiqoo: 明年如果FA以後加入天使他的成績肯定會更殺 08/11 09:26
15F:推 jaychou42: 殷仔加油!千萬別為了催球速而殷小失大! 08/11 09:28
16F:推 moneychen: 請問一下美國晚上10點打不會太晚嗎? 08/11 09:28
17F:推 sin17: 天使需要簽他嗎... 08/11 09:29
18F:推 Dawei1165: 加油!!! 08/11 09:30
19F:推 frf2pujols17: 西雅圖現在晚上六點半 08/11 09:31
20F:→ jehovahlove: 東西岸有時差? 08/11 09:31
21F:→ hicker: 東岸晚上10點是西岸晚上7點 08/11 09:31
22F:→ hicker: 有時差呀 08/11 09:31
23F:推 andy02: 我也覺得今天這比賽時間會不會太詭異? 08/11 09:32
24F:推 yushenlin: 米國是很大的 08/11 09:32
25F:→ andy02: 喔 謝謝h大解說 08/11 09:33
26F:→ yushenlin: 厄…地理都有教啊 08/11 09:33
27F:→ hicker: 紐約晚上10點=芝加哥晚上9點=丹佛晚上8點=洛杉磯晚上7點 08/11 09:33
28F:推 yankees733: 東西岸有時差這麼多人不知道喔 08/11 09:34
29F:→ andy02: 平常不會注意美國各地時差@@ 08/11 09:34
30F:推 GoldenWasabi: 蛤?原來有人不知道美東美西有時差+1 08/11 09:35
31F:推 edouard09: 地理老師常請假齁XD 08/11 09:35
32F:推 Kaberman569: 美西不是常常東八區時間十點開打嗎0.0 08/11 09:35
33F:→ andy02: 幾乎只看陳的比賽 就沒注意這麼多了~ 08/11 09:35
34F:推 yankees733: 以前王建民看久了,現在都記得各區比賽的時間 08/11 09:36
35F:→ edouard09: 美西的比賽看到中午不是常常發生的事情嗎XD 08/11 09:36
36F:推 lai162: 哈哈哈 uccu(回頭馬上開世界時間...) 08/11 09:36
37F:→ Kaberman569: 都幾年了居然有這疑問,以前也播過不少LAD小小郭 08/11 09:36
38F:推 love171920: 加油 08/11 09:37
39F:→ Kaberman569: 常常國內中午過後還沒上班呢XD 08/11 09:37
40F:推 shuo1010: 以前有追王建民才知道有時差XD 08/11 09:39
41F:推 Grady1979: 台灣日本這麼近都有時差了 怎麼可能美國東西岸沒時差.. 08/11 09:39
42F:推 andy02: 以前也有看王比賽 只是過滿久了 也沒在注意時間了 08/11 09:40
43F:推 GuoJ: 剛好時間ok 08/11 09:44
44F:推 a601401: 先來等某動物來酸 08/11 09:48
45F:推 huangjyuan: 東岸7:00 中部8:00 西岸10:00 08/11 09:48
46F:推 kzzoz80: 嗯 你加油 08/11 09:49
47F:推 ahshao: 先發列表的DH名字拼錯了 08/11 09:50
48F:推 ji394su31013: 暑修無法看……殷仔加油 08/11 09:53
※ 編輯: hicker (36.229.126.212), 08/11/2015 09:55:20
49F:→ youngsam: 西岸的時間阿 不過對東岸的人就有點晚了 08/11 09:59
50F:→ hicker: 開播!! 08/11 10:01
51F:→ dannykuo: 有些州會採日光節約時間 中部也有地方跟美東時間一樣 08/11 10:03
52F:推 frf2pujols17: FOX主播又被切廣告了XD 08/11 10:04
53F:噓 tnl0716: 白目 亂切廣告 08/11 10:04
54F:→ hicker: 要看美國的時區劃分線 尤其是大西洋與中部時區 08/11 10:05
55F:→ dannykuo: 記得印第安那州和伊利諾兩個在隔壁 夏天有差一小時 08/11 10:07
56F:→ hicker: 修正 是美東時區跟美中時區 08/11 10:07
57F:→ waiting0801: 準備開始了 08/11 10:07
59F:→ youngsam: 中國這麼大,都用北京時間啊 08/11 10:10
60F:推 waiting0801: H大可以考慮編輯在最前面,讓有需要的人可以看到 08/11 10:10
61F:→ hicker: 賽前閒聊就算了.... 08/11 10:12
62F:推 Linethan: 家裡沒電視啊啊啊啊 跪求....... 08/11 10:15
63F:推 steven211037: 常公剛說是誰?邊上班邊聽沒注意 08/11 10:15
64F:推 mepass: 狂拖台錢 08/11 10:15
65F:推 bengowa: 瘋狂蠶豆 08/11 10:15
66F:推 a601401: 別出局如風就好 08/11 10:15
67F:推 tnl0716: ...差一點 08/11 10:15
68F:推 alex813: 超黏XDDD 08/11 10:16
69F:推 et10tw: 差一點點啊... 08/11 10:16
70F:推 longmok2500: 幾球了啊= = 08/11 10:16
71F:推 MedicNylon: 跟球跟得真緊 08/11 10:16
72F:推 duepre: 我估狗打個MLB直播就有得看了 08/11 10:16
73F:推 frf2pujols17: google 民視或fox就有了 08/11 10:16
74F:→ youngsam: 一人耗13球 08/11 10:17
75F:推 bengowa: Hrrr 08/11 10:17
76F:→ alex813: AJ炸啦!!!!!!!!!! 08/11 10:17
77F:推 ChiroQQ: HR 08/11 10:17
78F:→ longmok2500: see ya 08/11 10:17
79F:推 mmmmmfff: 1-2維持到13球超強 08/11 10:17
80F:推 MetalChao: 炸! 08/11 10:17
81F:推 yankees733: AJ GONE!! 08/11 10:17
82F:推 buccos: Gone 08/11 10:17
83F:→ frf2pujols17: 爽 08/11 10:17
84F:推 yz31pln89: 水 08/11 10:17
85F:推 NowQmmmmmmmm: HR 08/11 10:17
86F:推 fred0755: HR!!!!!!!!!!!!!!!!! 08/11 10:17
87F:推 et10tw: Hrrrrrrr 08/11 10:17
88F:推 a23644910: 讚啦 08/11 10:17
89F:推 Isaac: HR 08/11 10:17
90F:→ LAKobeBryant: 水 08/11 10:17
91F:推 a601401: 炸裂 08/11 10:17
92F:推 cheeky2115: 爽 08/11 10:17
93F:推 goddamned: 有希望 08/11 10:17
94F:推 rayes: 槓!陰仔獲得火力支援 08/11 10:17
95F:推 yuiweq1999: 居然有先得分?! 08/11 10:17
96F:→ NowQmmmmmmmm: 打到棒頭還能出牆也太厲害了一點 08/11 10:17
97F:推 ssaw5166: 隨便就一枝全壘打惹 08/11 10:18
98F:推 MrMuscle: jones! 08/11 10:18
99F:推 v612138: Aj炸!!! 08/11 10:18
100F:→ tnl0716: 槓~ 08/11 10:18
101F:→ longmok2500: CD跟上RRRR 08/11 10:18
102F:推 tawi: hrrrrrrrrr 08/11 10:18
103F:→ youngsam: 剛好出牆!炸裂! 08/11 10:18
104F:推 LAGOD: 話說,全壘打西班牙文到底要怎喊 08/11 10:18
105F:推 nawy798546: 爽哦 08/11 10:18
106F:推 duepre: 殷仔首先掉分(誤 08/11 10:18
107F:→ mesoporous: 小鬍子CD~K!! 08/11 10:19
108F:→ cheeky2115: 風扇哥留鬍子好可愛 08/11 10:19
109F:→ tnl0716: 電風哥 08/11 10:19
110F:推 bengowa: CD越來越像電風扇 08/11 10:19
111F:→ LAGOD: 每次主播只喊,阿殺韋煞 美威,就沒了,記得很長啊 08/11 10:19
112F:推 d90: 怎麼幾天沒見,CD鬍鬚留成這樣了 08/11 10:19
113F:推 Edison1174: jonrón 08/11 10:19
114F:推 NovaDjokovic: 跪求連結 08/11 10:19
115F:推 lmf770410: 他ㄧ揮我這裡都好涼 08/11 10:19
116F:推 Kaberman569: 還是刮一刮比較好看... 08/11 10:20
117F:推 dfiyrixsa: 手套掉下去了XD 08/11 10:21
118F:推 Edison1174: 94MPH 08/11 10:21
119F:推 andy02: 真的 沒鬍子帥多了 但不知道這是不是跟迷信有關 08/11 10:21
120F:推 yz31pln89: 94連發 08/11 10:21
121F:推 loveazure: 第一球就94 08/11 10:21
122F:→ Edison1174: 94 94 93 08/11 10:21
123F:→ andy02: 有些球員會覺得目前情況不錯就不刮鬍子了 08/11 10:22
124F:→ duepre: 感覺狀況調整得不錯喔 加油 08/11 10:22
125F:推 d90: 94連發 08/11 10:22
126F:推 longmok2500: 球速有出來 08/11 10:22
127F:推 jehovahlove: 94連發 08/11 10:23
128F:推 waiting0801: 94 08/11 10:23
129F:推 loveazure: 今天球速超快 08/11 10:23
130F:推 yz31pln89: 都94。滿猛的 08/11 10:23
131F:推 Rex3661: 來了來了~~~ 08/11 10:23
132F:推 alex813: 差點 抖了兩下 08/11 10:24
133F:推 cdpicker: 差一點!!! 好險 08/11 10:24
134F:→ NowQmmmmmmmm: 好險 08/11 10:24
135F:推 a89182a89182: 甜了 08/11 10:24
136F:推 Edison1174: 差點鐵嘴 08/11 10:24
137F:推 frf2pujols17: 還真的沒全壘打 08/11 10:24
138F:→ duepre: 嚇死了 還以為出去了 08/11 10:24
139F:→ d90: 好佳在 08/11 10:24
140F:→ yz31pln89: 打出去好嚇人 08/11 10:24
141F:→ jehovahlove: 95被尻 08/11 10:24
142F:推 he02341997: 好險阿 08/11 10:24
143F:推 v612138: 剛講完…嚇死我 08/11 10:24
144F:推 et10tw: 好險... 08/11 10:24
145F:推 snth0705: 還以為要出去了= = 08/11 10:24
146F:推 longmok2500: 尿抖了一下=_= 08/11 10:24
147F:推 mannyharris: 球太高啦 08/11 10:24
148F:推 d06: 嚇數倫 08/11 10:24
149F:推 yuan1205: 滴了兩滴 08/11 10:24
150F:推 yuiweq1999: 沒出去都好處理!!!加油! 08/11 10:24
151F:→ cdpicker: 老隊友來了~感覺不妙 08/11 10:24
152F:推 eric02396: 主播一講打不好 就被打長打了 08/11 10:24
153F:→ longmok2500: 恐怖的來了 08/11 10:24
154F:→ waiting0801: .....嚇到= = 以為飛出去了 08/11 10:25
155F:→ d90: 又要洗得點圈數據了? 08/11 10:25
156F:→ cdpicker: 球偏高了! 08/11 10:25
157F:推 okplaymayday: 曾公神算 08/11 10:25
158F:→ waiting0801: 克魯茲很硬,陳加油阿 08/11 10:25
159F:→ youngsam: 小心前隊友 08/11 10:26
160F:→ d90: 好像機器,都94mph 08/11 10:26
161F:推 NowQmmmmmmmm: 傳很準也 08/11 10:27
162F:推 yz31pln89: 有點準.... 08/11 10:27
163F:→ cdpicker: 差一點點 08/11 10:27
164F:→ d90: 好可怕的臂力 08/11 10:27
165F:推 a0988332469: 臂力真好 08/11 10:27
166F:推 et10tw: 差點np 08/11 10:27
167F:推 a89182a89182: 差點成台灣之友 08/11 10:27
168F:→ NowQmmmmmmmm: 觸到老二XD 08/11 10:27
169F:推 v612138: 精彩啊!可惜了!!!!! 08/11 10:27
170F:→ cdpicker: 第一代台灣之友來了 08/11 10:27
171F:推 alex813: 下庄!!!!!!!!!! 08/11 10:27
172F:推 yankees733: 下庄 08/11 10:27
173F:推 yuan1205: 台灣之友 08/11 10:28
174F:推 Fiona102: 台灣之友 08/11 10:28
175F:推 mepass: Cano好人 08/11 10:28
176F:→ cdpicker: 得點圈 0-2 陳偉殷貞猛 08/11 10:28
177F:推 gn02143363: cpbl什麼時候會有這種臂力 08/11 10:28
178F:→ v612138: 謝Cano 08/11 10:28
179F:推 waiting0801: 今天陳第一局球速真的不錯94蠻多的,甚至還有95 08/11 10:28
180F:推 DerekHolland: Cano一球死 08/11 10:28
181F:推 loveazure: 今天投球有比較用力嗎 為什麼幾乎都94 08/11 10:28
182F:→ youngsam: 傳得很好! 08/11 10:28
183F:→ duepre: 幫偉殷省球數 謝謝CANO 08/11 10:28
184F:→ cdpicker: @gn02143363 統一郭岱琦 08/11 10:28
185F:推 abxtpml56: 不塊是台灣之友 一球死 08/11 10:28
186F:推 scatology: 那臂力太扯了吧 不落地...... 08/11 10:28
187F:推 colorbest: 臂力真的好強 08/11 10:28
188F:推 yuiweq1999: 果然得點圈反而不會掉分XD 08/11 10:28
189F:推 vul3yk6m06: Cano不愧是台灣之友 08/11 10:28
190F:推 keano1402: Cano臺灣之友 08/11 10:28
191F:推 q881599962oo: 今天速球好快 08/11 10:28
192F:推 s19987: 那個臂力……………扯 08/11 10:28
193F:→ youngsam: 洗得點圈數據 08/11 10:29
194F:推 ksxo: 賺了兩個得點圈打數XD 08/11 10:29
195F:推 jamie3160003: 中職看習慣了 mlb根本一堆鬼神 08/11 10:29
196F:推 d90: 果然又下修得點圈數據了,第一局直球球速幾乎都94 08/11 10:29
197F:推 chen06: Cano臺灣之友好像當很久了 XD 08/11 10:29
198F:→ s19987: 最近沒關注金鳥,請問右外野手是最近交易來的嗎? 08/11 10:30
199F:推 cheeky2115: Chen到西岸球速好像都不錯 之前對運動家也是 08/11 10:30
200F:→ cheeky2115: 釀酒人交易來的 08/11 10:30
201F:推 alex813: 右外野手 從釀酒人換來的 08/11 10:30
202F:推 a601401: 從王葛格到現在QAQ 08/11 10:30
203F:→ s19987: 歐歐感謝 08/11 10:30
204F:→ youngsam: Parra是交易來的沒錯 08/11 10:31
205F:→ d90: 下季去LA的球隊好了 08/11 10:31
206F:推 molinawang: 從酒人來的 08/11 10:31
207F:推 g794136: 第一局球速好快阿 08/11 10:31
208F:推 longmok2500: 3-0到吃K 08/11 10:31
209F:→ NowQmmmmmmmm: 金鳥之前的右外野手實在都太鳥 終於有一個能看的 08/11 10:32
211F:→ youngsam: Wieters打DH的時打的不算很好啊 08/11 10:33
212F:推 eric4309: 加油喔! 08/11 10:34
213F:推 cheeky2115: 常哥 講笑話了 08/11 10:34
214F:推 randylee: 西岸一般都是臺灣10點開打,有人第一天看MLB? 08/11 10:37
215F:推 ccccris: 外角海 08/11 10:38
216F:推 waiting0801: 都已經打到第二局了...還在討論幾點打囧 08/11 10:38
217F:推 frf2pujols17: 是在兇什麼 知道這個很厲害嗎 08/11 10:39
218F:推 alex813: 冏 08/11 10:39
219F:推 Edison1174: HR 08/11 10:39
220F:推 yz31pln89: 唉 08/11 10:39
221F:推 yankees733: 炸 08/11 10:39
222F:推 ttb: sad.............. 08/11 10:39
223F:推 v612138: 留不住啦~~~ 08/11 10:39
224F:推 abxtpml56: = = 08/11 10:39
225F:推 banbantone: hr 08/11 10:39
226F:推 et10tw: ......該死 08/11 10:39
227F:推 samggyy: 場場被轟 08/11 10:39
228F:推 chihow: 又被尻...... 08/11 10:39
229F:推 ssaw5166: 炸裂喇 08/11 10:39
230F:推 NowQmmmmmmmm: 跳的有點逼機XD 08/11 10:39
231F:推 sxxs: 也太容易被轟.... 08/11 10:39
232F:→ banbantone: 太容易被尻 08/11 10:40
233F:噓 scatology: 進壘點都蠻甜的@@ 壞球又很明顯 08/11 10:40
234F:推 DM24Tim: Guti... 08/11 10:40
235F:→ rock0525: 才誇完就被轟連兩顆紅中.... 08/11 10:40
236F:推 peter458z: 啊阿啊啊......... 08/11 10:40
237F:推 waiting0801: .....= = 08/11 10:40
238F:推 HonusWagner: 超高全壘打 08/11 10:40
239F:推 YenChinBiao: 球速小降一點了 08/11 10:40
240F:噓 LAGOD: 本季第23發,快追上高國輝了,強 08/11 10:40
241F:→ hergan: 93mile連發 08/11 10:40
242F:→ sxxs: 被轟了23發...... 08/11 10:40
243F:→ OldYellowDog: <囧> 08/11 10:40
244F:推 bman: ....... 08/11 10:40
245F:推 d90: 被轟之後球速又加上去了 08/11 10:41
246F:推 s19987: 進壘點太甜惹 08/11 10:41
247F:→ william7713: 剛好過牆... 08/11 10:41
248F:推 pdr666333: 最近一直被炸= = 08/11 10:41
249F:推 yuiweq1999: 要掉分都直接來的QQ 08/11 10:41
250F:→ thnlkj0665: 可惜啊... 08/11 10:41
251F:→ LAGOD: 陳也算是小發球機,太容易被炸了 08/11 10:41
252F:→ lmf770410: 1:1? 08/11 10:41
253F:推 r19881231: 小陳 你要不要學陳鴻文 先堆壘包比較會投 08/11 10:41
254F:推 jary200235: 牆有拉近嗎 08/11 10:42
255F:→ s19987: 1 out,穩住 08/11 10:42
256F:→ sxxs: 陳偉殷全壘打競賽美聯第四名(疑 08/11 10:42
257F:→ sxxs: 都快比中田翔還多了 XD 08/11 10:42
258F:推 LAGOD: 陳鴻文>>>殷仔,要不是鴻文懶得在美國,現在不得了 08/11 10:43
259F:推 alex813: 某L在開玩笑嗎?? 08/11 10:44
260F:推 s19987: 失一分下庄 08/11 10:45
261F:推 abxtpml56: LA看就知道在反串 08/11 10:45
262F:推 lai162: 不要跟那個帳號認真... 08/11 10:45
263F:→ Blader: 秀下限啊 陳鴻文連3A都丟得普普 08/11 10:45
264F:噓 g794136: 連live文也在反串 真的無聊 08/11 10:45
265F:推 yushenlin: 不意外 08/11 10:46
266F:推 Linares: 他是想黑陳鴻文 08/11 10:46
267F:推 OLM: CHEN今年的FIP生涯最差 可能不利談新約 08/11 10:46
268F:推 scatology: 陳鴻文XDDDDDDDD 那他為甚麼懶得在美國阿??? 08/11 10:46
269F:噓 hbk20491: ==========對方投手又變賽揚了========== 08/11 10:46
270F:推 basketballj: 陳鴻文是態度問題 08/11 10:48
271F:→ lee81219: 請問廣播要聽哪一台呢? 08/11 10:49
272F:推 GoldenWasabi: 看起來好好吃 08/11 10:49
273F:推 andy02: 肉看起來好像很好吃 @@ 08/11 10:49
274F:推 ttb: 可惜 08/11 10:49
275F:→ basketballj: 不然其實以3A成績來說很有機會上大聯盟 08/11 10:49
276F:推 longmok2500: 興奮了一下 嘖 08/11 10:49
277F:推 MachoMan217: 還以為出去 08/11 10:50
278F:→ basketballj: 不過跟陳偉殷比………一個有實績一個沒實績還退化 08/11 10:50
279F:推 fred0755: 這場感覺陳會輸 08/11 10:51
280F:推 a23644910: 賽揚架勢 08/11 10:51
281F:推 d90: 對方投手又開啟賽揚模式了 08/11 10:51
282F:推 sxxs: 說好不談王的.... 主播.... 08/11 10:54
283F:推 scatology: 曲球好慘 08/11 10:55
284F:推 yushenlin: 外野好多新同學 08/11 10:55
285F:推 NowQmmmmmmmm: 這一組外野手防守好多了 明星賽前根本就悲劇 08/11 10:55
286F:推 pzboy: 乾 韓文視又掛了嗎 08/11 10:55
287F:推 dudeboy: 今天都94穩定輸出 08/11 10:56
288F:推 longmok2500: BB 08/11 10:56
289F:推 mono0922: 查了一下,某L果然是吱吱,該說不意外嗎? 08/11 10:57
290F:推 sxxs: 主審............. 08/11 10:57
291F:推 jary200235: 好窄 08/11 10:58
292F:推 fred0755: 好球帶小的可憐 08/11 10:58
293F:→ sxxs: 修成紅中.... 08/11 10:58
294F:推 agod10823: 94 08/11 10:58
295F:推 cancould: 今天好球帶蠻小的… 08/11 10:58
296F:推 ttb: 居然壞球................. 08/11 10:58
297F:推 alex813: 再跑阿!! 08/11 10:59
298F:→ ttb: 抓到了!!! 08/11 10:59
299F:→ sxxs: 抓到! 08/11 10:59
300F:推 Edison1174: CS 08/11 10:59
301F:推 a8017700: 這好球帶也太小了吧 08/11 10:59
302F:→ fred0755: 哩溝皂 08/11 10:59
303F:推 frf2pujols17: 哩溝皂 08/11 10:59
304F:推 longmok2500: 哩溝造 08/11 10:59
305F:→ instill8: A4 08/11 10:59
306F:推 yuiweq1999: 水! 08/11 10:59
307F:推 yankees733: CS 08/11 10:59
308F:推 melrosejin: 嘻嘻再跑呀 08/11 10:59
309F:推 yushenlin: 水 08/11 10:59
310F:推 nowucme: 牽制? 08/11 10:59
311F:→ mono0922: 妳們家姐姐才該去大聯盟,把全美打者膝蓋都打爆才屌 08/11 10:59
312F:→ yushenlin: CD的鬍子… 08/11 10:59
313F:→ sxxs: 一壘手實況野球般華麗的轉身!! 08/11 10:59
314F:推 andy02: 抓的好! 08/11 11:00
315F:→ youngsam: 抓到了! 08/11 11:00
316F:推 tnl0716: 話說CD的鬍子很醜欸 08/11 11:00
317F:推 abxtpml56: 呼… 08/11 11:00
318F:推 d90: 接的也太隨性 08/11 11:00
319F:推 cpcpao: 舒服 08/11 11:00
320F:推 clywin123: 一壘手轉身感覺耗了不少時間 08/11 11:00
321F:噓 YenChinBiao: 膝之亂入? 08/11 11:00
322F:推 g794136: 不錯! 08/11 11:00
323F:→ yushenlin: 真的超醜 08/11 11:00
324F:→ alex813: CD鬍子超復古XD 08/11 11:00
325F:推 dudeboy: 鬍子很像美國公園老人在留的... 08/11 11:00
326F:→ sky419012: CD的鬍子 怎麼留成這樣? 08/11 11:00
327F:推 newsbow: 今天好球帶是B5吧 08/11 11:00
328F:→ youngsam: 自己塞的跑者自己抓? 08/11 11:01
329F:推 smatt612ro: 吱迷被抓包 真丟臉XDDDD 08/11 11:01
330F:→ dudeboy: 要不是他CD打擊火燙,要不然真想把他鬍子拔掉 08/11 11:01
331F:推 pepman: CD這鬍子真像馬莉兄弟 08/11 11:01
332F:推 waiting0801: XD瑪莉兄弟 08/11 11:01
333F:推 g794136: 對手真的又變賽陽了 08/11 11:03
334F:推 longmok2500: 賽揚上身 08/11 11:03
335F:推 tobbaco: 帕拉轉隊前成績如何? 08/11 11:03
336F:推 rayes: Nuno投的比殷仔還好? 08/11 11:03
337F:推 sxxs: 曾公 XDDDDDDDD 08/11 11:04
338F:推 a23644910: 又是AJ 08/11 11:04
339F:推 d90: 今天只剩AJ可打 08/11 11:04
340F:→ a23644910: 鬍子... 08/11 11:05
341F:推 scatology: CD的鬍子好性感 08/11 11:05
342F:推 s19987: 電風扇來惹 08/11 11:05
343F:→ d90: 比較像洋芋片品牌的那位先生 08/11 11:05
344F:→ LAGOD: 陳真的只有四五號的水準,抖阿 08/11 11:05
345F:推 abxtpml56: 品客+1 08/11 11:05
346F:→ a23644910: 鬍子是不是歪歪的啊? 08/11 11:06
347F:推 longmok2500: 喔喔喔喔喔喔 08/11 11:06
348F:推 alex813: 超前拉!!!! 08/11 11:06
349F:推 Edison1174: 2:1 08/11 11:06
350F:→ s19987: 得分!! 08/11 11:06
351F:→ longmok2500: 2:1 08/11 11:06
352F:→ NowQmmmmmmmm: 跑好快! 08/11 11:06
353F:→ abxtpml56: goal!! 08/11 11:06
354F:推 fred0755: 羺 08/11 11:06
355F:推 cheeky2115: 爽 沒特殊布陣 08/11 11:06
356F:推 et10tw: Ok 08/11 11:06
357F:推 genesys570: 鬍子哥讚啦 08/11 11:06
358F:推 sxxs: 差點抓到.... 08/11 11:06
359F:→ longmok2500: 品客大叔XD 08/11 11:06
360F:推 yuiweq1999: 鬍子哥XD 08/11 11:06
361F:→ et10tw: 哈哈哈哈品客鬍 08/11 11:06
362F:→ sxxs: 忘了佈陣??? XDDDD 08/11 11:06
363F:推 aneasygame: 速度真快 08/11 11:07
364F:推 andy02: AJ超快的.. 08/11 11:07
365F:→ NowQmmmmmmmm: 正常他打應該會很邊邊 怎麼沒靠邊 08/11 11:07
366F:→ cheeky2115: 忘記了吧 08/11 11:07
367F:→ s19987: 對耶怎麼沒布陣 08/11 11:07
368F:推 ugly4: 沒佈陣處理鬍子哥 08/11 11:07
369F:推 pinray: 布陣不就送跑者上三壘? 08/11 11:07
370F:推 ddreamer: h 08/11 11:08
371F:推 yz31pln89: 嘿嘿 08/11 11:08
372F:推 yuiweq1999: 打線又醒了! 08/11 11:08
373F:推 d90: 來個大局吧!! 08/11 11:08
374F:→ s19987: 一支安打一支一支打 08/11 11:08
375F:推 waiting0801: 連續H!!! 08/11 11:09
376F:推 g794136: 佈陣的話是拉ss去吧 08/11 11:09
377F:推 abxtpml56: 89mph失投 可惜 08/11 11:09
378F:推 peanut7516: 連下去啊 08/11 11:10
379F:推 ttb: 好球帶真的有小 08/11 11:10
380F:推 fred0755: 廢棒一個 08/11 11:10
381F:推 pinray: 3b通常會移ss? 08/11 11:10
382F:噓 helloit: k? 08/11 11:10
383F:推 ugly4: 有夠窄 08/11 11:11
384F:推 nichaellin: K味農 08/11 11:11
385F:推 yz31pln89: 唉 08/11 11:12
386F:推 ddreamer: k 08/11 11:12
387F:推 a601401: QQ 08/11 11:12
388F:推 fred0755: 後段都廢棒 挨 08/11 11:13
389F:推 chivalry1987: Lake 看起來就爛爛的 08/11 11:13
390F:推 bengowa: 死屍打線 08/11 11:13
391F:推 pk2003627: 跪求手機直播網址! 08/11 11:13
392F:推 abxtpml56: 打不到 08/11 11:13
393F:→ fred0755: 為啥把哈迪擺第八棒阿 無顏 08/11 11:13
394F:推 d90: 失投球都沒掌握,嘆 08/11 11:13
395F:推 ksxo: K功不錯啊 以今天的好球帶來說 08/11 11:13
396F:推 yushenlin: 恐怖褲子 08/11 11:15
397F:推 hitots: 請問Nuno是亞裔嗎? 怎有一種亞裔的fu 08/11 11:16
398F:推 ddreamer: h 08/11 11:16
399F:推 banbantone: 安打 08/11 11:16
400F:推 andy02: 有亞裔的感覺 或是南美洲人? 08/11 11:16
401F:推 g794136: 很會推... 08/11 11:16
402F:推 et10tw: Nuno 是西班牙語吧? 08/11 11:16
403F:推 volcome0427: 我有沒有看錯,Cruz用推的? 08/11 11:17
404F:推 a601401: 來吧 台灣之友 08/11 11:17
405F:推 mepass: 臺灣之友今天很給力 08/11 11:17
406F:推 agold: 怎麼出局的?這麼快 08/11 11:17
407F:推 DerekHolland: 台灣之友 again~ 08/11 11:17
408F:推 waiting0801: 跪求DP! 08/11 11:17
409F:推 abxtpml56: 超愛cano 08/11 11:18
410F:推 d90: 這支要小心 08/11 11:18
411F:推 scatology: 好球袋夠小 08/11 11:18
412F:推 banbantone: 應該是南美洲那邊的人吧 08/11 11:18
413F:推 a8017700: 超級A4好球帶....... 08/11 11:18
414F:推 MetalChao: 好球帶也超小... K zone 都顯示在裡面了 08/11 11:19
415F:推 snth0705: 跪求DP!! 08/11 11:19
416F:推 gn02143363: 好球帶真的好小... 08/11 11:19
417F:→ waiting0801: 兩邊一致說真的就還好 08/11 11:19
418F:推 alex813: KKKK 08/11 11:19
419F:推 ddreamer: kkkkk 08/11 11:19
420F:→ MetalChao: KKKKKKKKKKKKKKKKK 08/11 11:19
421F:→ d90: 水阿 08/11 11:19
422F:推 Edison1174: 第1K 08/11 11:19
423F:推 et10tw: Kkkkkkkkkk 08/11 11:19
424F:推 g794136: 準!! 08/11 11:19
425F:推 yuiweq1999: KKKKK 08/11 11:19
426F:推 scatology: 吃k啦 08/11 11:19
427F:推 tnl0716: 終於k了 08/11 11:20
428F:→ d90: 別鬆懈阿 08/11 11:20
429F:→ d90: 今天直球均速應該有快93吧 08/11 11:21
430F:推 tom80114: 這壞球? 08/11 11:22
431F:推 MetalChao: 下庄 08/11 11:22
432F:推 WowProctor: 誇張好球帶 08/11 11:22
433F:推 ddreamer: out下莊 08/11 11:22
434F:推 bengowa: 換邊 08/11 11:22
435F:推 A1bertPujols: 安全下莊 08/11 11:22
436F:推 matchit: 好球帶只有B4大小.... 08/11 11:22
437F:→ d90: 用球有點多,希望可以吃6局以上 08/11 11:22
438F:推 odsky: 主場優勢膩... 08/11 11:22
439F:推 WildMind: 怎麼出局的? 08/11 11:22
440F:推 tnl0716: 是今天球速真的比較快 還是測速槍比較快樂? 08/11 11:22
441F:推 a27647535: 好球帶好小啊 08/11 11:22
442F:推 mayflower020: 狀況不錯 但加油~~~ 08/11 11:23
443F:推 tj474474: 南美洲原住民本來看起來就很像亞裔了吧 08/11 11:23
444F:→ youngsam: 對手用球數更高啊 08/11 11:23
445F:推 waiting0801: 對手已經用了81球了 08/11 11:24
446F:推 a8017700: 這球給了?= = 08/11 11:24
447F:推 d90: 好球帶不太一致吧? 08/11 11:25
448F:推 frankalex15: 好球帶比屁眼還小 08/11 11:25
449F:推 mayflower020: 這攝影機 也太不專業。。 08/11 11:26
450F:→ mayflower020: 好幾次 找不到球 08/11 11:27
451F:推 jehovahlove: 2B 08/11 11:27
452F:推 ddreamer: 2b 08/11 11:27
453F:推 yushenlin: 標準的馬掐多2B 08/11 11:27
454F:→ yushenlin: 今天攝影師是民視的吧顆 08/11 11:27
455F:推 st941101: 莫非民視去實習? 08/11 11:27
456F:推 Edison1174: 愛接 08/11 11:28
457F:推 a23644910: 可惜 08/11 11:28
458F:推 a601401: 誇張 08/11 11:28
459F:推 MetalChao: 可惜 08/11 11:28
460F:推 d90: 有夠負運 08/11 11:28
461F:推 ttb: 可惜 08/11 11:28
462F:推 eric02396: 被np 08/11 11:28
463F:→ ddreamer: 可惜 08/11 11:28
464F:→ yushenlin: 可惜啊 08/11 11:28
465F:→ mayflower020: 新同學 @@ 08/11 11:28
466F:推 rayes: 殷仔靈氣守住了這球滿分 08/11 11:29
467F:→ yushenlin: Cruz這球害我想到2011WS G6 9局下半 08/11 11:29
468F:推 andy02: 愛接鬼 08/11 11:29
469F:推 loveazure: 2011WS G6 9局下半發生什麼事 08/11 11:30
470F:推 ddreamer: 主審自己撿哈哈 08/11 11:31
471F:推 d90: 不死鳥紅雀傳奇 08/11 11:31
472F:推 botno1: 今天好球帶比我的ipad air還小 08/11 11:31
473F:→ ddreamer: kkkkkkk 08/11 11:32
474F:推 MetalChao: 95mph 08/11 11:32
475F:推 g794136: 95!!! 08/11 11:32
476F:推 Edison1174: 95MPH K 08/11 11:32
477F:推 yz31pln89: 95。kkkkkkki 08/11 11:32
478F:推 frankalex15: 95! 08/11 11:32
479F:推 cheeky2115: 95!!!!!!! 08/11 11:32
480F:推 yushenlin: 95!!! 08/11 11:32
481F:推 ccccris: 95mile!!! 08/11 11:32
482F:推 coolpixs: 95!!!! 08/11 11:32
483F:→ d90: 95mph!!152km!! 08/11 11:32
484F:推 et10tw: Kkkkkkkk 08/11 11:32
485F:推 mayflower020: 水!!~~~ 08/11 11:32
486F:→ frankalex15: 從電視來看 好球帶就是一塊鳳梨酥的大小 08/11 11:32
487F:→ botno1: 95! 08/11 11:33
488F:推 tnl0716: 只有我覺得水手的好球帶比較大嗎 08/11 11:33
489F:→ d90: Trumbo怎麼退化那麼快 08/11 11:33
490F:噓 WildMind: 大小不是本壘板大小嗎?這主審是.... 08/11 11:33
491F:推 alex813: KKKKKKKKK 08/11 11:34
492F:推 ddreamer: kkkkkk 08/11 11:34
493F:推 pomelo0608: 越投越利 08/11 11:34
494F:推 yankees733: KKKKK 08/11 11:34
495F:推 g794136: 準!! 08/11 11:34
496F:→ chan324: 又K 08/11 11:34
497F:推 yushenlin: KKKKKKKKKKK 08/11 11:34
498F:推 yz31pln89: 好準 08/11 11:34
499F:推 tnl0716: kkkkkkkk 08/11 11:34
500F:推 et10tw: Kkkkkkkkkkkkkkkk 08/11 11:34
501F:→ yushenlin: 揮空率越來越高 08/11 11:34
502F:推 yuiweq1999: 感覺越來越順了!!!! 08/11 11:35
503F:→ ccccris: KKK!!! 08/11 11:35
504F:推 nichaellin: 找到鳳梨書拉 08/11 11:35
505F:推 hergan: 殷神 08/11 11:35
506F:推 s0912734765: 越投越帶勁 08/11 11:35
507F:推 d90: 今天直球均速接近150km吧 08/11 11:35
508F:推 twoquarters: 狀況不錯啊~~~ 08/11 11:35
509F:推 tonycowzz: 內角偏高不撿 這球偏低撿了 08/11 11:35
510F:推 coolpixs: 再來一顆 KKKKKKKKKKK 08/11 11:35
511F:推 nerv072: 93 連3顆!!! 08/11 11:35
512F:推 ryan8518: 直球超準!! 08/11 11:35
513F:推 saddog: 拉掉 哈哈 08/11 11:35
514F:推 botno1: 乾 這球帥 08/11 11:35
515F:→ Blader: 邊角都能控這麼準就太好了 08/11 11:35
516F:推 apple8335: 找到鳳梨酥XDDDDDD 08/11 11:35
518F:→ yankees733: 5局79球 08/11 11:35
519F:推 andy02: 這球超犀利!! 08/11 11:35
520F:→ mats0816: 這幾球控球!!! 08/11 11:35
521F:→ yushenlin: Cruz接到遊騎兵就冠軍了 結果從此一蹶不振 08/11 11:36
522F:推 ddreamer: 8.59 era 08/11 11:37
523F:推 MITPHYSICS: 陳猛的時候韓國345棒也是一樣解決的 08/11 11:37
524F:推 d90: 2011WS真的很精典 08/11 11:37
525F:→ youngsam: 對面換投了 08/11 11:37
526F:→ yushenlin: 第一球超甜 沒打 08/11 11:38
527F:推 pilgrimangus: 朵人要被便當炸翻了 08/11 11:38
528F:推 sky419012: 陳偉殷在水手主場球速好像都不錯 08/11 11:38
529F:推 ddreamer: hr 08/11 11:39
530F:推 alex813: 小鬍子炸啦!!!!!!!!!! 08/11 11:39
531F:推 yz31pln89: HR 08/11 11:39
532F:推 Edison1174: CD HR 08/11 11:39
533F:→ yushenlin: 醜鬍子CD HRRRRRR 08/11 11:39
534F:推 yankees733: CD HRRRRR 08/11 11:39
535F:推 hergan: hr 08/11 11:39
536F:推 MetalChao: CD 狀況也太好 08/11 11:39
537F:推 ttb: 水啦 08/11 11:39
538F:→ Blader: 爽!!!!!!! 08/11 11:39
539F:推 d90: 品客大叔!! 08/11 11:39
540F:推 a23644910: HRRRRRR 08/11 11:39
541F:推 ssaw5166: 炸 08/11 11:39
542F:推 d06: 水喔 08/11 11:39
543F:推 a601401: 帥啊 鬍子哥 08/11 11:39
544F:推 yuiweq1999: 鬍子是你!!!!?! 08/11 11:39
545F:推 et10tw: 好清脆 08/11 11:39
546F:推 tnl0716: 真的想刮你鬍子 不過表現好就原諒你XD 08/11 11:39
547F:→ youngsam: 炸裂! 08/11 11:40
548F:推 scatology: 爽! 08/11 11:40
549F:推 chivalry1987: 球迷 帽子掉了XD 08/11 11:40
550F:推 abxtpml56: YA 08/11 11:40
551F:→ sky419012: CD灬炸裂 08/11 11:40
552F:→ andy02: 有劉胡子有差XD 08/11 11:40
553F:推 OldYellowDog: HRRRRRRRRRRRRRRRRRRRRRRRRRRRRRRRRRRRRRRRRRRRRRRR 08/11 11:40
554F:噓 NovaDjokovic: 被雷到 08/11 11:40
555F:→ scatology: 帽子xdddd 要買新的了 08/11 11:40
556F:→ a23644910: 想接球結果帽子掉了 08/11 11:40
557F:推 ddreamer: hit speed 103mph 08/11 11:41
558F:推 d90: 看CD揮棒感覺真的沒啥出力順順的揮就出去了 08/11 11:41
559F:推 asd22961166: 帽子掉第二次了XD 08/11 11:41
560F:推 o0991758566: 很厲害接到了 可是球連帽子一起飛走XD 08/11 11:41
561F:→ dannykuo: 應該會有工作人員幫他撿 08/11 11:41
562F:推 yushenlin: 搶到炸裂文啦 爽(雖然沒人搶QQ 08/11 11:41
563F:推 tnl0716: 捕手手套尾勁很強哦 08/11 11:42
564F:推 youngsam: 穩穩投啊,昨天牛棚燒很大。 08/11 11:43
565F:推 Edison1174: DP 08/11 11:43
566F:噓 yushenlin: = = 08/11 11:43
567F:推 fred0755: 碼的後段真的有夠廢 08/11 11:43
568F:→ dannykuo: 工作人員好像還給他帽子了 阿球勒 08/11 11:43
569F:→ hergan: CD揮棒超漂亮 08/11 11:44
570F:推 benlinskyin: 球這麼慢還DP www 08/11 11:44
571F:→ hergan: 標準砲手 08/11 11:44
572F:推 d90: Cano傳球真的扯,輕鬆甩還是很快 08/11 11:44
573F:推 Edison1174: 5-Hour Energy 08/11 11:45
574F:推 kauw: LAKER好弱 換來換去都是些肉腳 SNIDER PARMELEE LOUGH 08/11 11:46
575F:推 a7811292002: 請問幾局了? 08/11 11:48
576F:推 helloit: 6下 08/11 11:48
577F:→ yushenlin: 湖人不意外 08/11 11:48
578F:推 Edison1174: 六下 08/11 11:48
579F:推 alex813: 6局2出局 08/11 11:48
580F:→ NowQmmmmmmmm: 出局如風 08/11 11:48
581F:推 blue8d83n: 6下 08/11 11:48
582F:推 lyf8068: 輕鬆愜意 08/11 11:48
583F:→ alex813: 下 08/11 11:48
584F:→ yushenlin: 恐怖褲子又來了 08/11 11:49
585F:→ yushenlin: 漂亮變速球 08/11 11:49
586F:→ lyf8068: 恐怖電風扇? 08/11 11:49
587F:→ lyf8068: 9444444444 08/11 11:49
588F:推 d90: 這幾局控球比前三局好多了,變化球明顯變威 08/11 11:49
589F:→ yushenlin: 83→94 威 08/11 11:49
590F:→ lyf8068: KKKK 08/11 11:49
591F:推 yankees733: 陳今天QS get 08/11 11:49
592F:推 MetalChao: 水啦 08/11 11:50
593F:推 ddreamer: QS 08/11 11:50
594F:推 pomelo0608: 結束六局^^ 08/11 11:50
595F:推 Blader: 爽!!!!!!! 08/11 11:50
596F:→ alex813: 水啦!!!!!穩一場 08/11 11:50
597F:→ yushenlin: 89球 6局 下一局還會上嗎~ 08/11 11:50
598F:推 bengowa: 6局89球 會不會偷呢 08/11 11:50
599F:→ helloit: QS是甚麼縮寫? 08/11 11:50
600F:→ lyf8068: 今年失超過3分 只有1場???????? 08/11 11:50
601F:推 d06: 優質先發 08/11 11:50
602F:推 noidc: quality start 08/11 11:50
603F:→ charles20267: 微舒服 08/11 11:50
604F:推 mayflower020: 好帥~~~~~ 08/11 11:50
605F:推 ChiaJie: Quality start? 08/11 11:50
606F:→ d90: 優質先發 08/11 11:50
607F:推 fred0755: QUALITY START 08/11 11:50
608F:推 tnl0716: 穩定的陳回來了 希望穩到季末阿 08/11 11:50
609F:推 a619103: 今天好穩 08/11 11:50
610F:推 Rex3661: 我殷威武 08/11 11:50
611F:→ lyf8068: Q屋 阿 了梯 START 08/11 11:50
612F:推 youngsam: 應該會繼續上吧 08/11 11:50
613F:噓 LAGOD: 真難得,有機會投第七局了,一個5566局限定的投手,這樣超 08/11 11:51
614F:推 andy02: 這局好省 應該有第7局 08/11 11:51
615F:→ yushenlin: Quality Start 08/11 11:51
616F:推 XDDDD5566: 等等不給他投 又摔手套怎麼辦QAQ 08/11 11:51
617F:→ fred0755: ERA降到多少? 08/11 11:51
618F:→ LAGOD: 棒 08/11 11:51
619F:推 nisi0773: 好難抉擇 該去吃飯還是繼續看呢 肚子好餓~ 08/11 11:51
620F:推 saddog: 今天真舒服 08/11 11:51
621F:推 OldYellowDog: 推 08/11 11:51
622F:推 cheeky2115: 跨勒踢死大 08/11 11:51
623F:→ a0988332469: 下一棒CANO 左打 對陳又打不好 會不會偷呢 08/11 11:51
624F:→ woulin: 89球 還可以偷一局 08/11 11:51
625F:推 Finn5566: 一定會上的吧 08/11 11:51
626F:推 twoquarters: QS Get!!!!!!!!!!!!!! 08/11 11:51
627F:推 yuiweq1999: 好猛阿~~ 08/11 11:51
628F:推 pilgrimangus: 酸民又來了 大家坐穩 08/11 11:51
629F:推 yankees733: 下局對Cano應該還會投吧 08/11 11:51
630F:→ yushenlin: 某動物還沒出現 某人敢自稱酸民嗎 08/11 11:51
631F:推 Ferrero0212: 某些人真的很愛刷存在感XDDDDDDDDDDDD 08/11 11:51
632F:推 GoldenWasabi: 繼續上+1 有狀況再換 08/11 11:51
633F:推 botno1: 今天控球有點神啊,面對這種極小好球帶還能控成這樣 08/11 11:51
634F:推 HonusWagner: 89球竟然要用偷這個字 08/11 11:51
635F:→ d90: 變化球投得好直球效果更佳 08/11 11:52
636F:→ woulin: 不過見好就收吧 偷局數都會吃鱉 08/11 11:52
637F:噓 sky419012: 小心引戰的來了 別上鉤啊 08/11 11:52
638F:→ yushenlin: 100球以內應該都還好 08/11 11:52
639F:→ andy02: 真的剛有一球 就在最邊邊角落 看了真爽 08/11 11:52
640F:推 g794136: 89球本來就會續投了吧 08/11 11:53
641F:推 ugly4: 還是要測續航力吧 08/11 11:53
642F:推 youngsam: 昨天牛棚燒了有點多,應該還是會讓他多投 08/11 11:53
643F:推 v612138: 今日陳偉殷的投球真舒服! 08/11 11:53
644F:→ woulin: 早就測過很多次了 到百球就很容易爆 08/11 11:53
645F:推 d90: 等下Cano左打應該會續投,不過接下來今天打過HR的五棒,可能 08/11 11:54
646F:推 waiting0801: 今天陳的速球其實看得蠻爽的 08/11 11:55
647F:推 ken36995: 請問一下現在比數多少? 08/11 11:55
648F:推 GoldenWasabi: 今天好球帶真的蠻鳥的 水手投手有點衰 XD 08/11 11:56
649F:→ hicker: BAL 3:1 SEA 08/11 11:56
650F:推 kauw: 換這隻LAKE更弱.. 08/11 11:56
651F:→ GoldenWasabi: BAL 3: 1 SEA 7上 08/11 11:56
652F:推 MITPHYSICS: 投百球容易爆是上半季沒看球吧 08/11 11:56
653F:→ ken36995: 謝謝 08/11 11:56
654F:→ kauw: 對很多投手來說上半季下半季本來就兩件事 體力會開始下滑 08/11 11:57
655F:噓 scatology: 100球會爆??? 08/11 11:57
656F:推 yushenlin: 後段好爛 08/11 11:58
657F:推 cheeky2115: 做操了喔 08/11 11:58
658F:推 cancould: 今年陳的era不是逐局遞減嗎 08/11 11:58
659F:推 d90: 酸民伺機而動 08/11 11:58
660F:→ kauw: 不過金鳥昨天牛燒光了 陳應該會吃到七局 08/11 11:59
661F:推 pinray: 加油 4.5.6棒! 08/11 11:59
662F:推 g794136: 到100球會爆不是今年吧 08/11 11:59
663F:推 yangch: 酸民熱身完畢,等候上場 08/11 12:00
664F:推 OceanAdin: 還能被打一支陽春砲的空間... 08/11 12:00
665F:推 MetalChao: 台灣之友 1球 08/11 12:00
666F:→ g794136: 真的是台灣之友 08/11 12:00
667F:推 alex813: CANO好人 08/11 12:00
668F:→ yushenlin: 又一球死XDDDDDDDDDD 08/11 12:00
669F:推 helloit: 怎麼死的?這麼愛陳 08/11 12:00
670F:推 mepass: 今天cano人超好 08/11 12:00
671F:→ yushenlin: 真 台灣之友 08/11 12:00
672F:→ Blader: 水喔 1球解決 08/11 12:00
673F:推 scatology: Cano XDDDDDDDDDD 08/11 12:00
674F:推 MachoMan217: 還在 08/11 12:01
675F:推 Rex3661: 酸民帶著嬰仔到牛棚熱身 08/11 12:01
676F:推 lyf8068: 修瓦特怕因仔生氣XDDDDD 08/11 12:01
677F:推 waiting0801: XDDD 08/11 12:01
678F:推 jamie3160003: cano出局如風 08/11 12:01
679F:推 d90: Cano今天3次只花了4球,超級好人阿,Hi~Cano(戳戳) 08/11 12:01
680F:推 leo79415: 不愧是初代台灣之友 08/11 12:01
681F:→ mepass: 下次看要不要挑戰0球出局 08/11 12:01
682F:推 lmf770410: 卡諾真好人 08/11 12:01
683F:→ nisi0773: 主播: Cano很合作!! 08/11 12:02
684F:→ scatology: 小心點阿 08/11 12:02
685F:→ leo79415: 不要倆好又被尻 08/11 12:02
686F:→ lmf770410: 吊個滑球看看 08/11 12:02
687F:推 tw88: 台灣好朋友 cano 08/11 12:02
688F:推 ugly4: 尿了 08/11 12:02
689F:推 alex813: KKKKKKKKKK 08/11 12:02
690F:推 yankees733: KKKKKKK 08/11 12:02
691F:推 pirson: 差點閃尿 08/11 12:03
692F:→ d90: 今天曲球全部壞球 08/11 12:03
693F:推 frankalex15: KKKKKKKKKKKKKKKKKKKKKKKKKKKKKKKKKKKKKKKKKKKKK 08/11 12:03
694F:推 MetalChao: KKKKKKKKKKKKKKKKKK 08/11 12:03
695F:推 et10tw: Kkk啦 08/11 12:03
696F:→ lmf770410: Kkkkkkkkkkk 08/11 12:03
697F:→ scatology: 吃K啦 08/11 12:03
698F:→ tw88: KKKKK 08/11 12:03
699F:→ Blader: KKKKKKKKKKKKKKK 帥啊!! 08/11 12:03
700F:→ lmf770410: Song!!!!!!!!!! 08/11 12:03
701F:推 twoquarters: KKKKKKKKKKKKKKKKK 08/11 12:03
702F:推 lyf8068: 因仔只會被全壘打丟分............. 08/11 12:03
703F:→ lmf770410: 搶好球數真棒 08/11 12:03
704F:推 benlinskyin: 好準 08/11 12:03
705F:→ d90: 這幾局變化球完全進階了 08/11 12:03
706F:→ alex813: NPPPPPPPPPPPP 08/11 12:03
707F:→ MetalChao: NP! 08/11 12:03
708F:→ yankees733: Machado NPPPPPPPPPP 08/11 12:03
709F:→ lmf770410: 馬恰多!!!! 08/11 12:03
710F:→ frankalex15: 太美 08/11 12:03
711F:→ fred0755: 水啦超級NP 08/11 12:03
712F:推 de606430: NPPPPPPPPPPPPPP 08/11 12:03
713F:→ lyf8068: 如果是楊冠威.................... 08/11 12:03
714F:推 Roystu: 舒服 ~~~~~~~~ 08/11 12:03
715F:推 HonusWagner: 水 08/11 12:03
716F:推 yushenlin: NPPPPPP 08/11 12:03
717F:推 tryit0902: KKKKKKKKKKKKKKKKKKK 08/11 12:03
718F:推 bengowa: Nppppppppppp 08/11 12:03
719F:噓 LAGOD: 控制得宜是12號,所以正常是345號,球評也這麼說了 08/11 12:04
720F:推 Axy8: 讚啦! 08/11 12:04
721F:推 a23644910: 水啦!會續投嗎? 08/11 12:04
722F:推 peanut7516: 馬掐多超帥 08/11 12:04
723F:→ yankees733: Machado不愧是金手套 08/11 12:04
724F:推 lee71xc07: 再偷一局! 08/11 12:04
725F:推 tnl0716: 哪有k拉哈哈 08/11 12:04
726F:→ lmf770410: 怎麼可以這麼舒服 08/11 12:04
727F:推 a619103: 帥阿 08/11 12:04
728F:→ fred0755: 中職一定檢不起來外加暴傳 08/11 12:04
729F:噓 cheeky2115: 酸民勒? 08/11 12:04
730F:推 Tamama05: 有機會八局 08/11 12:04
731F:推 g794136: 舒服 08/11 12:04
732F:→ alex813: 馬掐都守備就是舒服 08/11 12:04
733F:→ royli: 97球了 08/11 12:04
734F:推 d06: 超強 08/11 12:04
735F:推 abxtpml56: cool 08/11 12:04
736F:→ tnl0716: 某LA可以不要刷存在感嗎 08/11 12:04
737F:推 andy02: NP爽 08/11 12:04
738F:推 shallow1112: 今天後面幾局投的很棒 08/11 12:04
739F:推 a601401: 在上面沒多遠 08/11 12:04
740F:推 epw: 讚! 08/11 12:05
741F:→ andy02: 這場看的真爽快~ 08/11 12:05
742F:推 zaknafein: 投滿七局 已哭 08/11 12:05
743F:推 Finn5566: 下一局糾竟會不會上呢wwww 08/11 12:05
744F:→ d90: 某L沒人理 08/11 12:05
745F:→ a601401: 好可憐哦 08/11 12:05
746F:推 ugly4: 前幾天U-Ball都燃燒到8局了... 08/11 12:05
747F:→ lmf770410: 不行的話蚵嗲 也可以 08/11 12:05
748F:推 HonusWagner: 應該會讓他投看看,昨天牛棚燒不少 08/11 12:05
749F:→ Blader: 別理他 把他當空氣就好了 08/11 12:05
750F:→ yankees733: 97球,應該能交給O'Day了 08/11 12:05
751F:推 tsailaw: 控制得好是12號 那就是12號啊= = 08/11 12:05
752F:→ bostonred: 我猜八局續投 一有人上壘就換投 08/11 12:05
753F:→ peanut7516: 管他幾號,有好投就是爽 08/11 12:05
754F:→ epw: 如果是陽砲大概不敢傳,如果是n4應該會丟到別人觀眾席上2壘 08/11 12:06
755F:→ peanut7516: 應該直接歐爹了 08/11 12:06
756F:推 qwqw0424: 某L夏天容易身體發冷 08/11 12:06
757F:推 eric4309: 3:1 08/11 12:06
758F:推 youngsam: 應該會繼續 08/11 12:06
759F:推 pinray: 97球繼續上抓後面三棒其實不是沒可能 08/11 12:06
760F:推 cheeky2115: 水 金鷹趕快打 牛棚沒時間練 讓陳續投 08/11 12:06
761F:推 yuiweq1999: 買個午餐回來七局就投完了好快阿QQ 08/11 12:07
762F:推 twoquarters: 7局掉一分~~~ 明星賽後代表作!!! 08/11 12:07
763F:→ pinray: 出局如風XD 08/11 12:07
764F:→ fred0755: 金鳥玩全不想打保險分 碼的 08/11 12:07
765F:推 ddt73930: 不會上吧 才領先兩分 休休不會冒這種險 08/11 12:07
766F:→ fred0755: 後援就別掉分 操 08/11 12:07
767F:推 lmf770410: 想揮大棒 08/11 12:08
768F:→ fred0755: ODAY BRITTON上來關門 08/11 12:08
769F:推 GentleJena: 現場音怎麼不見了 08/11 12:08
770F:推 a23644910: 現場聲音變好小 08/11 12:08
771F:→ lmf770410: Go 08/11 12:08
772F:→ a23644910: 還以為我耳鳴 08/11 12:09
773F:→ epw: 難講了 一半一半 O'day打卡兩天了 08/11 12:09
774F:推 sharkhead: 開副聲道吧 08/11 12:09
775F:推 mepass: 還是別偷了 08/11 12:09
776F:推 cheeky2115: 轉播沒拍牛棚啊 續投吧 08/11 12:09
777F:推 chou001002: 球場觀眾席有電視喔?! 08/11 12:10
778F:推 HonusWagner: 牛棚昨天燒到歪掉,應該會續投 08/11 12:10
779F:推 GoldenWasabi: 這真的不好決定....XD 08/11 12:10
780F:→ epw: 不過剩下三棒全右打 可能會換.... 08/11 12:10
781F:推 yankees733: 續投 08/11 12:11
782F:推 alex813: Chen續投!!!!!!!!! 08/11 12:11
783F:推 lmf770410: 應該會偷到7.1~7.2 08/11 12:11
784F:推 Tamama05: 續投 08/11 12:11
785F:推 MetalChao: 續投! 08/11 12:11
786F:推 yushenlin: 繼續投唷 08/11 12:11
787F:推 g794136: 續投! 08/11 12:11
788F:推 a23644910: 續投 08/11 12:11
789F:推 cheeky2115: 續*!!!!!! 08/11 12:11
790F:推 Roystu: 這麼拼 08/11 12:11
791F:推 d90: 曲球投進去了!! 08/11 12:11
792F:→ yankees733: 這局關鍵 08/11 12:11
793F:→ epw: 續投! 08/11 12:11
794F:推 nisi0773: 很難猜嗎 就是續投 一有狀況就換下來 08/11 12:11
795F:推 scatology: 破百 08/11 12:11
796F:推 cdpicker: 有人上壘就會被換下來 08/11 12:11
797F:→ lmf770410: 100球 08/11 12:11
798F:推 denispeter: 殷仔為台灣災民投出一場好球,95英哩攻擊 08/11 12:11
799F:推 benlinskyin: 準 08/11 12:12
800F:→ hergan: 狀況真的超好 08/11 12:12
801F:→ lmf770410: 不舉 08/11 12:12
802F:→ hergan: 94 mile 08/11 12:12
803F:推 sharkhead: 今天球速滿猛的 08/11 12:12
804F:推 lee71xc07: 還有94 08/11 12:12
805F:推 wh0386: 感覺要被換了 08/11 12:12
806F:推 kauw: 是因為昨天RP燒光光 不過修華特就是狀況好就一直投的人 08/11 12:12
807F:推 de606430: 修瓦特緊張吼 08/11 12:12
808F:→ yankees733: KKKKK 08/11 12:12
809F:→ Roystu: KKKKKKKKKKKKKKKKK 08/11 12:12
810F:→ scatology: KKKKKKKK 08/11 12:12
811F:→ alex813: KKKKKKKKK 08/11 12:12
812F:→ lmf770410: Kkkkkkkkkkkkkkk 08/11 12:12
813F:→ MetalChao: KKKKKKKKKKKKKKKK 08/11 12:12
814F:推 sean12345678: KKKKKKKKKK! 08/11 12:12
815F:推 hank61910: 兩好三壞 08/11 12:12
816F:→ g794136: 還有94! 08/11 12:12
817F:推 tnl0716: kkkkkkkkkkk 08/11 12:12
818F:→ a23644910: kkkkkkkk 08/11 12:12
819F:→ yushenlin: 94 KKKKKKKKKKKk 08/11 12:12
820F:推 HonusWagner: 爽 08/11 12:12
821F:推 fred0755: KKKKKKKKKKKKKKKKKKK 08/11 12:12
822F:→ lmf770410: Song!!!!!!!!!!!!!!!!!!! 08/11 12:12
823F:→ lee71xc07: 臉發! 08/11 12:12
824F:→ yankees733: 完美速球 08/11 12:12
825F:→ de606430: 94KKKKKKKKKKKKKKKKKKKKKKKKKKKKKKKK 08/11 12:12
826F:推 cheeky2115: 太猛啦!!!!!!!!!!!! 08/11 12:12
827F:→ sharkhead: 這球超舒服 08/11 12:12
828F:→ hergan: 霸氣 08/11 12:12
829F:→ epw: KKKKKKKKKKKKKKKKKKKKKKKKKK 08/11 12:12
830F:→ d90: 越投越帶勁!! 08/11 12:12
831F:推 pomelo0608: 帥! 08/11 12:12
832F:→ lmf770410: 爽到爆 08/11 12:12
833F:推 FK84288: 94!!! 08/11 12:12
834F:推 mochiQ: 殷!!!!!!!!!!!!!!!!!!! 08/11 12:12
835F:推 loveazure: 陳怒K 08/11 12:13
836F:推 yuiweq1999: 會不會完投阿~~~~~ 08/11 12:13
837F:推 abxtpml56: 帥阿 08/11 12:13
838F:→ cdpicker: 超強! 08/11 12:13
839F:→ Blader: 完全正中直球硬拼 08/11 12:13
840F:→ youngsam: 牛棚需要休息啊 08/11 12:13
841F:→ yushenlin: 川寶啥時來水桶惹@@ 08/11 12:13
842F:推 tw88: 跟CANO看齊xddddd 08/11 12:13
843F:推 andy02: KKKKKKKKKK 08/11 12:13
844F:推 bostonred: 爽 08/11 12:13
845F:→ yushenlin: 打錯是水手 08/11 12:13
846F:→ campdkny: @@ 陳今天好威喔 08/11 12:13
847F:推 w515013: 會拼完投嗎? 08/11 12:13
848F:推 Finn5566: 好兇的直球阿!!!! 08/11 12:13
849F:→ yankees733: 球速不用太快還是能讓人揮空 08/11 12:13
850F:→ tnl0716: 不會完投 認真覺得最多八局 08/11 12:13
851F:推 Luao47: 不可能吧 08/11 12:14
852F:推 wh0386: 曲球完全不行... 08/11 12:14
853F:推 botno1: 今天陳有霸氣 08/11 12:14
854F:→ fred0755: 不會啦 一定給CP上 08/11 12:14
855F:推 d90: 這打者投完應該會換 08/11 12:14
856F:推 scatology: 今天狀況不錯 94 08/11 12:14
857F:推 waiting0801: 今天速球金送 08/11 12:14
858F:推 pirson: 唉唷~牛棚只有Britton 08/11 12:14
859F:推 a27647535: 要燃燒了 08/11 12:14
860F:→ scatology: 曲球不行 08/11 12:14
861F:→ yankees733: Britton會上來關門 08/11 12:14
862F:→ wh0386: 還投曲球... 08/11 12:14
863F:推 cdpicker: 拚直球吧 08/11 12:14
864F:推 OceanAdin: 該換了 08/11 12:14
865F:→ benlinskyin: 燃燒小宇宙 08/11 12:14
866F:推 lmf770410: 川伯蠶豆 08/11 12:14
867F:→ d90: 來顆變速 08/11 12:15
868F:推 yuiweq1999: 真的投很好啊~~ 08/11 12:15
869F:→ hergan: 偏高球都買有引誘力 打者都出棒打 08/11 12:15
870F:推 frankalex15: 修總坐立不安 08/11 12:15
871F:→ hergan: BB 08/11 12:15
872F:→ lmf770410: B.... 08/11 12:15
873F:推 alex813: 換了 08/11 12:15
874F:→ wh0386: 換 08/11 12:15
875F:推 kauw: 要110球了 08/11 12:15
876F:→ yankees733: 換了 08/11 12:15
877F:→ d90: 111 08/11 12:15
878F:→ benlinskyin: 換了 08/11 12:15
879F:推 Roystu: 可惜 08/11 12:15
880F:→ cdpicker: 可以換了 08/11 12:15
881F:→ lmf770410: 換 08/11 12:15
882F:推 tw88: 摳斯當沒有極限 08/11 12:15
883F:推 yushenlin: 換了 08/11 12:15
884F:推 mannyharris: 換了 08/11 12:15
885F:推 a601401: 下班 08/11 12:15
886F:推 mepass: 偷不下去了 08/11 12:15
887F:→ yuiweq1999: 保送力馬換 08/11 12:15
888F:推 sharkhead: 會摔手套嗎 08/11 12:15
889F:→ lmf770410: 可以接受 08/11 12:15
890F:→ scatology: 不錯了 08/11 12:15
891F:推 ddreamer: 投幾局 08/11 12:15
892F:→ cdpicker: PTT球迷都知道怎調度了XDDD 08/11 12:15
893F:推 de606430: 收工~辛苦了 08/11 12:15
894F:推 sonesnsdsosi: 今天超讚 08/11 12:15
895F:→ hergan: 曲球沒進去可惜了 08/11 12:15
896F:→ yushenlin: 又切廣告 08/11 12:15
897F:推 LAGOD: 準備摔手套嗎? 08/11 12:15
898F:推 GoldenWasabi: 算是ok的調度啦 08/11 12:16
899F:推 Tamama05: 好多鄉親 08/11 12:16
900F:→ kauw: 花了一堆球解決不了 可惜 08/11 12:16
901F:→ d90: 今天後面真的投很好 08/11 12:16
902F:推 ken8353: 美中不足 可惜 08/11 12:16
903F:→ sonesnsdsosi: 調度很ok 08/11 12:16
904F:推 sony1256: 下班了 今天猛 08/11 12:16
905F:推 NowQmmmmmmmm: 教練今天也賺死了 牛棚可以休息 08/11 12:16
906F:→ lmf770410: LAGOD只能摔鍵盤 08/11 12:16
907F:推 MeloKing: 剛剛咬手套 08/11 12:16
908F:→ woulin: 不只偷局數 連投球數都偷 08/11 12:16
909F:→ OceanAdin: 下一棒炸裂才會摔 08/11 12:16
910F:推 HonusWagner: Britton要投兩局 08/11 12:16
911F:推 hu610346: 這打者好強 蠶豆魂 08/11 12:16
912F:→ alex813: 某L繼續刷存在感 08/11 12:16
913F:推 tnl0716: 最後一顆變速其實也不差 只是打著明顯等速球 08/11 12:16
914F:推 sg8888sgsg: 酸他的可以自己去打喔 08/11 12:16
915F:推 kerkerkerbe: 水喔 08/11 12:16
916F:→ woulin: 被打一轟就扯平了 08/11 12:17
917F:推 epw: 下場了 清潔快來掃玻璃呀~ 只剩下摔手套能酸了 08/11 12:17
918F:推 bostonred: 曲球如果能搶好球數的話 就更省力了 08/11 12:17
919F:推 youngsam: 該換了 08/11 12:17
920F:→ hu610346: 剛剛好像有看到中文應援海報 08/11 12:17
921F:推 snth0705: 求DP!!! 08/11 12:17
922F:推 andy02: 最後依顆頭的不錯 可惜打者沒上鉤 08/11 12:17
923F:→ mats0816: 最後一顆應該是內角滑球,打者選得好 08/11 12:17
924F:推 botno1: 左投卡特神要登場了 08/11 12:17
925F:推 frankalex15: 有國旗 08/11 12:17
926F:→ lmf770410: 今天真的太舒服了 08/11 12:17
927F:推 pirson: 修總用兵確實相對保守 讓CP上來處理5個出局數 08/11 12:17
928F:推 helloit: 第一球要小心~ 08/11 12:17
929F:推 XDDDD5566: era降到3.21了 08/11 12:17
930F:→ andy02: 現在外卡之爭很激烈阿 08/11 12:18
931F:→ pirson: 所以先前幾次早早把殷仔換下來 也能理解 08/11 12:18
932F:推 hyk32166: 最近幾場都投不多 一場還好 08/11 12:18
933F:推 sxxs: 直接壓終結者 08/11 12:18
934F:→ cdpicker: 91%的速球 08/11 12:18
936F:推 sharkhead: 這投手的直球怎感覺很會跑 08/11 12:18
937F:推 botno1: 97!!!!!!!!! 08/11 12:19
938F:推 tnl0716: 投一休四的closer (? 08/11 12:19
939F:→ hyk32166: Britton那顆是伸卡 08/11 12:19
940F:→ epw: CP V.S 盲砲 08/11 12:19
941F:→ hu610346: 陳偉殷的速球比希克威猛 08/11 12:19
942F:→ yankees733: 98mph二縫 08/11 12:19
943F:推 a601401: 98 08/11 12:19
944F:推 yushenlin: 98mph sinker!! 08/11 12:19
945F:推 a27647535: 98? 08/11 12:19
946F:推 kings1988: 希望季末能降到3以下 08/11 12:19
947F:→ botno1: 這投手就左投李維拉阿,只投卡特 08/11 12:19
948F:推 scatology: KKKKKKKKKKKKK 08/11 12:19
949F:→ lmf770410: Kkkkkkkkk 08/11 12:19
950F:推 Edison1174: K 08/11 12:19
951F:→ pirson: 96+ cutter 當然噁心啊 哈哈 08/11 12:19
952F:→ sharkhead: 97的伸卡喔!!??挖靠 08/11 12:19
953F:→ yushenlin: KKKKKKKKK 08/11 12:19
954F:推 d90: 98mph還下墜,怎麼打阿 08/11 12:19
955F:→ lmf770410: Britton就是穩 08/11 12:19
956F:→ frankalex15: 98.......掉成這樣 08/11 12:19
957F:→ cdpicker: 這甚麼鬼球??!! 08/11 12:19
958F:→ yankees733: 他的伸卡是火球級的 08/11 12:19
959F:推 kauw: 是伸卡還卡特 搞的我好亂? 08/11 12:20
960F:推 benlinskyin: 超噁心XD 08/11 12:20
961F:→ hyk32166: 那顆不是卡特... 08/11 12:20
962F:推 charles20267: 速度這麼快的可怕伸卡 08/11 12:20
963F:推 Finn5566: 這打者姿勢有點像A-ROD 08/11 12:20
964F:→ hu610346: 好噁喔 08/11 12:20
965F:→ cdpicker: MO是很準速度也很棒 08/11 12:20
966F:推 youngsam: 牛棚沒人了啊 08/11 12:20
967F:→ sharkhead: 他丟球感覺也不是很用力 08/11 12:20
968F:→ youngsam: 昨天燒完了,還一個進DL 08/11 12:21
969F:推 scatology: 金鶯要是今天只用兩個投手的話可以讓牛棚好好休息 08/11 12:21
970F:推 sxxs: XDDDDDDDDD 08/11 12:21
971F:推 vul3yk6m06: H 08/11 12:21
972F:推 yankees733: 99mph被打 08/11 12:21
973F:→ scatology: NO~~~~ 08/11 12:21
974F:推 kerkerkerbe: XDD 08/11 12:21
975F:推 fred0755: ......這樣安打.... 08/11 12:21
976F:→ hergan: ............ 08/11 12:21
977F:推 lmf770410: 幸運安 08/11 12:21
978F:→ sharkhead: 劇場來了 08/11 12:21
979F:推 mochiQ: 囧 08/11 12:22
980F:推 epw: ?? 誰進DL? 08/11 12:22
981F:推 a23644910: 拜託守住 08/11 12:22
982F:推 LAGOD: 勝投要掰了 08/11 12:22
983F:→ cdpicker: 西雅圖高志綱?? 08/11 12:22
984F:推 alex813: 好刺激 08/11 12:22
985F:→ kerkerkerbe: 要搞了? 08/11 12:22
986F:推 HonusWagner: 高志綱安打 08/11 12:22
987F:推 Edison1174: 又是高志綱彈跳 08/11 12:22
988F:→ sxxs: 笑了 XD 08/11 12:22
989F:推 tnl0716: 拜託守住偉殷的分數阿阿阿 08/11 12:22
990F:推 botno1: 喔喔 原來是伸卡,球速真快 08/11 12:22
991F:推 d90: 伸卡,卡特都直球系列的吧,不過不管如何97,98的伸卡卡特都 08/11 12:22
992F:推 sonesnsdsosi: 伸卡滾滾安 08/11 12:22
993F:→ youngsam: 明天還是休息好久才先發的Tillman 08/11 12:22
994F:推 pirson: Sinker not Cutter sorry~ 08/11 12:22
995F:→ yushenlin: O'day人勒 08/11 12:22
996F:推 cheeky2115: 全民打棒球這種安打很嘔 08/11 12:22
997F:→ lmf770410: 蚵嗲讓他休息吧 08/11 12:22
998F:推 waiting0801: 拜託鎖住 08/11 12:22
999F:推 MetalChao: 陳偉殷做鬼臉 XDDD 08/11 12:22
1000F:→ charles20267: 抓到了,扮鬼臉 08/11 12:22
1001F:→ sxxs: 99 08/11 12:23
1002F:→ yankees733: 99mph 08/11 12:23
1003F:推 kauw: 上一次BROTTON砸掉陳勝投就是一堆鳥滾 菜2B一直守不下來 08/11 12:23
1004F:推 hu610346: 陳偉殷好帥 還扮鬼臉 08/11 12:23
1005F:→ hergan: 98 99 08/11 12:23
1006F:→ cheeky2115: 99!!!!!!! 08/11 12:23
1007F:推 mannyharris: 陳偉殷在幹嘛XD 08/11 12:23
1008F:推 sony1256: 左投99...好可怕 08/11 12:23
1009F:→ HonusWagner: K味濃 08/11 12:23
1010F:推 snth0705: 拜託K一下 08/11 12:23
1011F:→ d90: 99!! 08/11 12:23
1012F:→ sharkhead: 他握四縫不知道能不能跟查普曼拚球速? 08/11 12:23
1013F:推 scatology: 來啦 三振他! 08/11 12:23
1014F:→ yankees733: KKKKKKKK 08/11 12:23
1015F:→ alex813: KKKKKKKKKKK 08/11 12:23
1016F:→ lmf770410: Kkkkkkkkkk 08/11 12:23
1017F:→ MetalChao: KKKKK 08/11 12:23
1018F:→ hergan: KKK! 08/11 12:23
1019F:推 henry860520: KKKKKKKKKKKK 08/11 12:23
1020F:→ yushenlin: Chen跟Uball聊很爽 08/11 12:23
1021F:→ anne1201w: KKKKKKKKKKKK 08/11 12:23
1022F:→ scatology: kkkkkkkkkkkkkkkkkk 08/11 12:23
1023F:→ sxxs: 99 -> 86 @_@ 08/11 12:23
1024F:→ cheeky2115: 變化球欸!!!! 08/11 12:23
1025F:→ mannyharris: KKKKK 08/11 12:23
1026F:推 kerkerkerbe: KK 08/11 12:23
1027F:推 a23644910: kkkkk 08/11 12:23
1028F:推 cdpicker: KKKKKKKKKKKKKKKKKKKKKK 08/11 12:23
1029F:推 FK84288: KKKKKKKK 08/11 12:23
1030F:推 Beanoodle: kkkkkkkkk 08/11 12:23
1031F:→ hu610346: 無解 這配球好可怕……原來還有這變速球 08/11 12:23
1032F:推 ttnakafzcm: 這局下庄 08/11 12:23
1033F:推 talentchih: 他投4-seam應該可以破百吧 08/11 12:24
1034F:推 d06: 超猛!!! 08/11 12:24
1035F:推 v612138: 送!KKKKKKK 08/11 12:24
1036F:→ yushenlin: 這球郝威 08/11 12:24
1037F:推 epw: Chen : 錢難賺 , U-Ball : 是呀 08/11 12:24
1038F:推 kgis210921: 這顆變速真水 08/11 12:24
1039F:→ snth0705: 某L哭哭 08/11 12:24
1040F:推 jamie3160003: 靠這個妖怪 還有滑球喔 08/11 12:24
1041F:推 fred0755: 她球路不少好嗎 只是對手用直球就可以了 08/11 12:24
1042F:推 peanut7516: 水啦,結算 08/11 12:24
1043F:→ kauw: ODAY連上兩天 ..不能再上了..金鳥丟掉HUNTER OK 但要補牛阿 08/11 12:24
1044F:推 chou001002: 來個小滑球~ 08/11 12:24
1045F:→ cheeky2115: 這是滑球嗎 arsenal沒有變速這球種 08/11 12:24
1046F:推 bengowa: 突然來個滑球 op 08/11 12:24
1047F:推 wahaha888: 99mph二縫線實在太殺 08/11 12:24
1048F:推 andy02: 超強 08/11 12:24
1049F:→ cdpicker: MLB一堆鬼神 08/11 12:25
1050F:→ epw: 金鳥打順的話應該會再撿waiver吧 08/11 12:25
1051F:→ weijunW: Britton球路的軌跡怎麼不太像常見的速球啊...到水管找影 08/11 12:25
1052F:推 ugly4: 陳下場了我們要開始得分了 08/11 12:25
1053F:推 hyk32166: Britton以前是先發 可以投比較長(? 08/11 12:25
1054F:→ weijunW: 片時,似乎老歪不覺得有啥特別的?!影片意外的少... 08/11 12:25
1055F:→ yushenlin: Fox要播德甲耶 拜仁慕尼黑~~ 08/11 12:25
1056F:推 lai162: 再上O'Day就要改名everyday了= = 08/11 12:25
1057F:→ tnl0716: 印象中Britton以前先發很炸 08/11 12:26
1058F:→ epw: 金鶯一堆牛棚以前都是先發呀 XD...... 08/11 12:26
1059F:推 d90: 水手球場測速應該有快一點,之前Britton球速看都96,97,今 08/11 12:26
1060F:推 hu610346: 今天陳偉殷勝投 義大再贏就完美了 08/11 12:26
1061F:→ d90: 今天快1mph 08/11 12:26
1062F:推 lmf770410: 馬力歐CD 08/11 12:27
1063F:推 andy02: every day滿有梗的XD 08/11 12:27
1064F:推 pirson: 這支轉後援以後 猛猛der 速球+5 mile 整個有壓制力 08/11 12:27
1065F:推 cheeky2115: Hunter Matsuz Britton 都先發啊 08/11 12:27
1066F:推 youngsam: 昨天牛棚吃6局,今天能休息真的是比較好 08/11 12:27
1067F:→ epw: 養差了就變牛了 Britton , Brach , Mcfarland , Matusz 08/11 12:28
1068F:推 a27647535: Hunter被丟了? 08/11 12:28
1069F:→ epw: O'day -> Allday 08/11 12:28
1070F:推 kauw: BRITTON不就MO翻板 當先發球種不夠一輪後會爆 08/11 12:28
1071F:→ cheeky2115: 被交易 08/11 12:28
1072F:→ a27647535: 喔喔 08/11 12:28
1073F:→ epw: hunter換今天的RF lake , 結果Hunter去小熊還是正常表現 08/11 12:29
1074F:推 lmf770410: H 08/11 12:29
1075F:推 cdpicker: Wieters 6呎5 好高啊 08/11 12:29
1076F:→ kauw: 轉牛棚可以摧球速阿 會快一點 王MLB生涯最快就對金鳥CP投的 08/11 12:29
1077F:推 henry860520: HH 08/11 12:29
1078F:推 bengowa: 陳今天感覺心情很好 08/11 12:29
1079F:→ kauw: HUNTRE換LAKE 雙輸?XD 不過金鳥為了省錢拉.. 08/11 12:29
1080F:→ a27647535: 正常砸鍋嗎 XD 08/11 12:30
1081F:推 lmf770410: NP.... 08/11 12:30
1082F:推 cheeky2115: 美鳳有約 暫停播出 08/11 12:30
1083F:推 sean90330: 陳:今天心情好就不摔手套了 08/11 12:30
1084F:→ kauw: 王收涯惟一SV就有投到97 對金鳥拿下SV 雖然抖抖的 哈哈 08/11 12:30
1085F:→ epw: 目前Hunter在小熊 : 3IP 3ER (2HR) , 1 Save 1 Hold 08/11 12:30
1086F:→ epw: 容易被全壘打的老毛病一樣,不過略勝一些小熊牛棚.... 08/11 12:31
1087F:→ epw: 換Lake應該小賺吧 Hunter這兩年狀況明顯往下滑 08/11 12:32
1088F:推 lmf770410: 湖人根本自殺棒 08/11 12:32
1089F:推 Edison1174: LAKE馬上KKK 08/11 12:32
1090F:推 liunwaiqoo: Britton先發很悲劇.....轉職CL整個變鬼神....... 08/11 12:32
1091F:→ liunwaiqoo: 99麥的伸卡控球又準,打者打個洨........... 08/11 12:33
1092F:推 chivalry1987: 超廢的Lake 光名字就輸一半了 08/11 12:33
1093F:推 kauw: 湖人 人人很可欺 坦主不意外 08/11 12:33
1094F:推 botno1: 下局精彩了XDDDDD 08/11 12:33
1095F:→ aa40105: 接下來都強棒...加油守住啊 08/11 12:33
1096F:推 fred0755: 這棒怎能先發阿 廢到爆 08/11 12:33
1097F:推 lmf770410: 褲子....... 08/11 12:34
1098F:→ kauw: SNIDER PARMELEE LOUGH LAKER 你想看那個?誰比較廢?很難挑 08/11 12:34
1099F:推 alex813: 姐姐竟然失誤!?!?! 08/11 12:35
1100F:推 henry860520: EEEE 08/11 12:35
1101F:推 Edison1174: E 08/11 12:35
1102F:推 sharkhead: UG8上身 08/11 12:35
1103F:推 lmf770410: 姐姐............ 08/11 12:35
1104F:→ benlinskyin: E 08/11 12:35
1105F:推 O10lOl01O: 劇場! 08/11 12:35
1106F:推 fred0755: 搞闢阿 最後失誤 08/11 12:35
1107F:推 q77777892: .......... 08/11 12:35
1108F:推 s512874690: 姐姐! 08/11 12:35
1109F:推 dragon49er: N4上身 08/11 12:35
1110F:噓 scatology: ............ 08/11 12:35
1111F:→ Edison1174: N4上身 08/11 12:35
1112F:推 mannyharris: 姐姐竟然失誤 08/11 12:35
1113F:推 NowQmmmmmmmm: N4上身 08/11 12:35
1114F:推 botno1: 第一顆變化球XDDDDDDD 08/11 12:35
1115F:推 eric02396: 美國N4 08/11 12:36
1116F:→ kauw: 記得前年還是大前年 對手手被金江審搞掉勝投? 08/11 12:36
1117F:→ lmf770410: 好人卡諾,來顆雙殺吧 08/11 12:36
1118F:推 epw: Lough好了 防守好一點 08/11 12:36
1119F:推 kreator666: ... 08/11 12:36
1120F:→ benlinskyin: 台灣之友來個DP 08/11 12:36
1121F:推 chivalry1987: N4 是你 08/11 12:36
1122F:→ aa40105: ...要開劇場了 08/11 12:36
1123F:→ O10lOl01O: 自殺棒Cano 安全到不行^o^ 08/11 12:36
1124F:→ epw: 今天好人Cano來了 08/11 12:36
1125F:→ liunwaiqoo: DP!!!!!!!!!!!!!!!!!! 08/11 12:36
1126F:→ s512874690: 陳偉殷緊張了XD 08/11 12:36
1127F:推 a23644910: dp 08/11 12:36
1128F:推 lmf770410: 真的雙殺XDDDDDDDDDDDDDD 08/11 12:36
1129F:→ benlinskyin: XDDDDDDDDDDDDDDDDDDDD 08/11 12:36
1130F:→ fred0755: DP!!!!!!!!!!!!!!!!!!!!!!!! 08/11 12:36
1131F:推 henry860520: DDDPPP 08/11 12:36
1132F:→ eric02396: DPPPPPPPPPP 08/11 12:36
1133F:推 alex813: Cano今天大好人呀XDDDDDDDDDD 08/11 12:36
1134F:推 he02341997: 台灣之友! 08/11 12:36
1135F:推 rapf1111: 真的dp 08/11 12:36
1136F:→ mannyharris: DPPPP 08/11 12:36
1137F:推 yankees733: Cano台灣之友 08/11 12:37
1138F:→ NowQmmmmmmmm: 人也太好 08/11 12:37
1139F:→ aa40105: XDDD 08/11 12:37
1140F:推 q77777892: DP耶 08/11 12:37
1141F:→ s512874690: 謝謝你 Cano 08/11 12:37
1142F:推 bengowa: cano臺灣之友 08/11 12:37
1143F:推 jasonccr: DPPPPPPPPPPPPPPPPPPPPPPPPPPPPPPPPPPPPPPPPPPPPPPPPP 08/11 12:37
1144F:→ a23644910: 不愧是臺灣之友 08/11 12:37
1145F:→ fred0755: 太爽啦 08/11 12:37
1146F:推 kinkijun: (*゚▽゚)ノ 08/11 12:37
1147F:推 mepass: 好到沒話說 08/11 12:37
1148F:→ benlinskyin: 真的雙殺了XDDDDDDDD 08/11 12:37
1149F:→ lmf770410: ==============MVP: Cano============ 08/11 12:37
1150F:推 yuan1205: 台灣之友!!!! 08/11 12:37
1151F:推 tnl0716: 謝謝你 cano 08/11 12:37
1152F:→ kauw: CANO:台多友好 08/11 12:37
1153F:→ liunwaiqoo: 這不是台灣之友什麼才是台灣之友?????? 08/11 12:37
1154F:→ epw: Cano : 需要再一顆傳丟的球打頭,謝謝 08/11 12:37
1155F:→ q77777892: 感謝Cano! 08/11 12:37
1156F:推 okplaymayday: 剛剛聽到主播發音很像Derek Lowe的球員是誰 08/11 12:37
1157F:→ NowQmmmmmmmm: CANO年底再來臺灣吧 請你吃夜市 08/11 12:37
1158F:→ yankees733: 要來台灣玩嗎 08/11 12:37
1159F:推 LAGOD: cano竟然爛成這樣 08/11 12:37
1160F:→ epw: 洩洩你 Cano 08/11 12:37
1161F:→ eric02396: HI Cano \(〞︶〝*) 戳戳 08/11 12:37
1162F:→ tnl0716: 陳偉殷宵夜是不是請錯人拉 都請Cano了XD 08/11 12:37
1163F:→ liunwaiqoo: 投的很輕鬆卻有98麥.................. 08/11 12:38
1164F:推 helloit: Cano今天上場共花幾顆球~ 08/11 12:38
1165F:推 verybiggun: Cano今天幾打席幾球啊??? 08/11 12:38
1166F:→ mepass: 可以直接頒獎了 08/11 12:38
1167F:推 boyen0917: 剛換上的左外野手 08/11 12:38
1168F:推 botno1: Cano不愧是台灣之子 08/11 12:38
1169F:→ epw: 今天的壞人來了 08/11 12:38
1170F:→ lmf770410: 漂亮的變化球 08/11 12:38
1171F:→ liunwaiqoo: 變化球85麥這速差.......而且是好球.......... 08/11 12:38
1172F:推 wolfwang: 台灣之友 是妳!!!! 08/11 12:38
1173F:→ epw: SV: Britton & Cano , MVP : Cano 08/11 12:38
1174F:推 s512874690: Cano四打席6顆的樣子 08/11 12:39
1175F:→ woulin: Cano來台灣玩 我送他一箱阿Q統麵 08/11 12:39
1176F:→ mepass: 想說cano怎麼在等球 原來是在選雙殺 08/11 12:39
1177F:推 wh0386: 4次上來 7個球 08/11 12:39
1178F:→ liunwaiqoo: 這隻光靠滑球和伸卡當CL就能屠殺MLB了吧 08/11 12:39
1179F:→ epw: mepass: 想說cano怎麼在等球 原來是在選雙殺 XDDDD 08/11 12:39
1180F:推 lmf770410: 贏不了就蠶豆你 08/11 12:40
1181F:推 LAGOD: cano今天4打席5出局數 08/11 12:40
1182F:推 fred0755: 好黏喔操 08/11 12:40
1183F:推 snth0705: 蠶豆中 08/11 12:40
1184F:推 s512874690: 蠶豆 08/11 12:41
1185F:推 O10lOl01O: Gutty好威 08/11 12:41
1186F:推 mochiQ: 是在黏什麼啦 08/11 12:41
1187F:推 abxtpml56: Cano可能看到先發來自TAIWAN就心軟了 08/11 12:41
1188F:→ epw: Cano落寞的回到休息室,發現櫃子前疊了五碗阿Q桶麵 08/11 12:41
1189F:推 liunwaiqoo: 歐爸了~~~~~~~~~~~~~~~~ 08/11 12:41
1190F:→ O10lOl01O: double 08/11 12:41
1191F:推 jasonccr: 2b = = 08/11 12:41
1192F:推 NowQmmmmmmmm: 嚇死 08/11 12:41
1193F:推 hergan: 長打.. 08/11 12:41
1194F:噓 scatology: 別鬧阿....... 08/11 12:41
1195F:推 nextpage: 變數來了 08/11 12:41
1196F:推 hu610346: 陳偉殷:RRRRRRERRRR 08/11 12:41
1197F:推 loveazure: 還好有Cano 08/11 12:41
1198F:→ LAGOD: 還好有cano 08/11 12:41
1199F:→ abxtpml56: >< 08/11 12:41
1200F:推 jamie3160003: 還好有cano當夾心餅乾!! 08/11 12:42
1201F:→ O10lOl01O: 飛很遠喔 差點尻 08/11 12:42
1202F:推 kauw: CP不能投太多局 不然會有意外.. 08/11 12:42
1203F:推 tnl0716: 呃…不要阿阿阿 08/11 12:42
1204F:推 a23644910: 沒差 自殺棒 08/11 12:42
1205F:→ liunwaiqoo: 98麥的伸卡被逮中........ 08/11 12:42
1206F:→ waiting0801: = = 08/11 12:42
1207F:→ abxtpml56: cano又拿棒子上來 08/11 12:42
1208F:推 benlinskyin: 真的還好有Cano 08/11 12:42
1209F:→ O10lOl01O: Cano打席的價值在這一刻徹底表現 08/11 12:42
1210F:→ woulin: 如果Cano 也上壘 搞不好就追平 08/11 12:42
1211F:→ s512874690: 謝謝你 Cano 08/11 12:42
1212F:推 lazuritechen: Cano謝謝你 08/11 12:42
1213F:→ waiting0801: 一瞬間我以為飛出去= = 08/11 12:42
1214F:推 he02341997: 看起來球沒有很快就98 99 08/11 12:42
1215F:→ benlinskyin: 99 08/11 12:42
1216F:→ aa40105: ...緊張 08/11 12:42
1217F:推 bengowa: 99麥 08/11 12:42
1218F:推 GentleJena: 今天是不是快樂槍啊 08/11 12:43
1219F:推 epw: A-Jox? 收工收工.... 08/11 12:43
1220F:推 star90237: 99連發 08/11 12:43
1221F:→ loveazure: 今天測速槍真的比較快? 08/11 12:43
1222F:→ hergan: 用內角逼迫出棒 搶好球 08/11 12:43
1223F:→ scatology: Cano今天真棒!!!!! 08/11 12:43
1224F:→ jamie3160003: cano:看吧!患難見真情 08/11 12:43
1225F:推 verybiggun: 阿Q桶麵的梗是??? 08/11 12:43
1226F:→ woulin: CL投這麼多球 下一場大概無法出賽 08/11 12:43
1227F:推 sincere77: wp 08/11 12:43
1228F:推 nextpage: ...... 08/11 12:43
1229F:→ liunwaiqoo: 用球數30控球有點跑掉了 08/11 12:43
1230F:→ O10lOl01O: 3B 08/11 12:43
1231F:推 mochiQ: 劇場qq 08/11 12:43
1232F:推 snth0705: 守住啊 08/11 12:43
1233F:推 d90: 劇場 08/11 12:43
1234F:→ s512874690: 別來亂啊啊啊啊 08/11 12:44
1235F:→ loveazure: Britton加油啊 08/11 12:44
1236F:→ waiting0801: 拜託鎖住 08/11 12:44
1237F:推 st941101: 阿Q是他爸啊 08/11 12:44
1238F:推 kauw: 所以說不能當先發阿 不要一輪 兩局就要爆了 08/11 12:44
1239F:→ liunwaiqoo: 賞他一顆99麥跟他對決~~~ 08/11 12:44
1240F:→ epw: 統一洋將阿Q是Cano老爸呀 08/11 12:44
1241F:推 jasonccr: 來個k 08/11 12:44
1242F:推 mepass: Cano也開始緊張了 08/11 12:44
1243F:→ waiting0801: 知道阿Q的也應該都有點年紀了XD 08/11 12:44
1244F:→ O10lOl01O: 這兩棒都好黏 08/11 12:44
1245F:→ s512874690: 一直纏鬥 08/11 12:44
1246F:→ O10lOl01O: Britton太早上 有機會 08/11 12:45
1247F:→ liunwaiqoo: 不死三振.......................... 08/11 12:45
1248F:推 alex813: XDDDDDDDDDDD 08/11 12:45
1249F:推 ddreamer: 太扯 08/11 12:45
1250F:推 henry860520: GGGG 08/11 12:45
1251F:推 sincere77: 不死三振XDD 08/11 12:45
1252F:→ O10lOl01O: 掉分 08/11 12:45
1253F:推 nextpage: 劇場啊 08/11 12:45
1254F:推 he02341997: ... 08/11 12:45
1255F:推 hergan: 不死K .. 08/11 12:45
1256F:推 a23644910: ..... 08/11 12:45
1257F:→ benlinskyin: 不死三振... 08/11 12:45
1258F:噓 h034826567: ............ 08/11 12:45
1259F:推 bengowa: ...... 08/11 12:45
1260F:噓 a7107772: 三小..... 08/11 12:45
1261F:→ jasonccr: 不死三振= = 08/11 12:45
1262F:推 abxtpml56: 這劇本…… 08/11 12:45
1263F:→ kauw: 跨局投就是風險 第8局就上 08/11 12:45
1264F:→ charles20267: 劇場劇場 08/11 12:45
1265F:推 NowQmmmmmmmm: 在幹嘛= = 08/11 12:45
1266F:推 d90: 不死三振,昏倒 08/11 12:45
1267F:噓 cdpicker: ............... 08/11 12:45
1268F:推 mannyharris: 不死三振..... 08/11 12:45
1269F:推 eric02396: 美國達鬨 08/11 12:45
1270F:推 travis2329: …… 08/11 12:45
1271F:推 kinkijun: 這殺小 08/11 12:45
1272F:推 XDDDD5566: 結束了 08/11 12:45
1273F:→ s512874690: 是有沒有這麼慘 08/11 12:45
1274F:推 whipzj: 我沒看過阿Q打過球 但因爲是老王隊友才知道阿Q 08/11 12:45
1275F:噓 scatology: Britton該換了吧......... 太多球了 08/11 12:45
1276F:→ d06: ......../ 08/11 12:45
1277F:推 ohiyo104: 太神了.... 08/11 12:46
1278F:→ liunwaiqoo: 捕手在欉三洨............ 08/11 12:46
1279F:→ woulin: 被打一轟就逆轉了 08/11 12:46
1280F:推 verybiggun: Cano爸來過台灣打球喔? 08/11 12:46
1281F:→ hergan: CP真的不能亂偷局數 08/11 12:46
1282F:推 suika824: 有夠慘.. 08/11 12:46
1283F:→ benlinskyin: 傻眼 08/11 12:46
1284F:噓 q77777892: 捕什麼逸啦 08/11 12:46
1285F:噓 qwqw0424: ......... 08/11 12:46
1286F:推 tonycowzz: 這是在演漫畫嗎 08/11 12:46
1287F:推 chucky: 補益 08/11 12:46
1288F:→ XDDDD5566: ....看gameday還以為結束了 08/11 12:46
1289F:推 lenz25217: 神劇本 08/11 12:46
1290F:推 mochiQ: 陳要拿勝投真的很困難XD 08/11 12:46
1291F:噓 MachoMan217: ...... 08/11 12:46
1292F:→ alex813: 太刺激了 08/11 12:46
1293F:推 frankalex15: 太低了吧XDDD 08/11 12:46
1294F:推 botno1: 靠 補逸嗎 08/11 12:46
1295F:推 salazopyrin: 搞丟勝投的節奏啊 08/11 12:46
1296F:→ hergan: 揮棒打壞球XD 08/11 12:46
1297F:推 waiting0801: 這...= = 08/11 12:46
1298F:→ kauw: 修華特前天5:0還在派ODAY 想什麼? 造成今天不能用 08/11 12:46
1299F:→ benlinskyin: 就阿Q 08/11 12:46
1300F:推 usausausa: 盲劍客總該結束了吧 08/11 12:46
1301F:推 TaiwanJunior: Cano 的老爸以前來台灣打職棒的登錄名是"阿 Q" 08/11 12:46
1302F:→ Xiong271: 還好中間CANO有上場救援 首下兩個出局數 08/11 12:46
1303F:→ liunwaiqoo: KKKKKKKKKKKKKKKKKKKKKKKKK 08/11 12:47
1304F:推 Edison1174: Win!!!!!!!!!!!!!!!!!!!!!!!!!!!!!!! 08/11 12:47
1305F:→ O10lOl01O: 這隻打的很爛 我看K定了 08/11 12:47
1306F:推 MrChief: 恭喜代表美國巴爾的摩隊的陳偉殷成為勝利投手!! 08/11 12:47
1307F:推 lmf770410: =============== Win =============== 08/11 12:47
1308F:推 mowkow0611: =====================結束了=============勝投 08/11 12:47
1309F:推 bengowa: 結束~~~~~ 08/11 12:47
1310F:→ alex813: 勝投Get!!!!!!!!! 08/11 12:47
1311F:推 a23644910: kkkkkk 08/11 12:47
1312F:推 epw: 胖蒙? 應該會GG喇 大誤耶 08/11 12:47
1313F:推 yankees733: KKKKKKKKK 08/11 12:47
1314F:→ hergan: 狂打壞球XD 08/11 12:47
1315F:推 henry860520: XDDDDDDDDDDDDD 08/11 12:47
1316F:推 nextpage: 幸好 08/11 12:47
1317F:→ q77777892: 總算QQQQQQQQ 08/11 12:47
1318F:推 jasonccr: KKKKKKKKKKKKKKKKKKKKKKKKKKKKKKKKK 08/11 12:47
1319F:推 he02341997: 終於阿 08/11 12:47
1320F:噓 lazuritechen: 今年金鶯能進季後賽也只是陪打吧... 08/11 12:47
1321F:→ kauw: 拖颱錢幹嘛 08/11 12:47
1322F:推 KY1998: KK 08/11 12:47
1323F:→ usausausa: 哈哈 連三揮 08/11 12:47
1324F:推 ddreamer: 收工 08/11 12:47
1325F:推 snth0705: 再見三振!!! 08/11 12:47
1326F:→ ohiyo104: 這啥XDDDDDDDDDDD 08/11 12:47
1327F:→ benlinskyin: 差點又掉.... 08/11 12:47
1328F:推 s512874690: 接到了 08/11 12:47
1329F:→ scatology: 再見k 08/11 12:47
1330F:推 jamie3160003: 差點又漏接XDDD 08/11 12:47
1331F:推 cdpicker: 這球接到了XDDDDDDDDDDD 08/11 12:47
1332F:推 samggyy: 我們贏啦~ 08/11 12:47
1333F:推 NowQmmmmmmmm: = =嚇死 08/11 12:47
1334F:推 mannyharris: 陳笑的很開心 08/11 12:47
1335F:推 abxtpml56: 好險 08/11 12:47
1336F:→ epw: 還不是靠前洋基大物 08/11 12:47
1337F:推 a27647535: 他的情緒也太明顯了吧 XDDDD 08/11 12:47
1338F:推 charles20267: 差點又要捕逸 08/11 12:47
1339F:推 yushenlin: 終於結束啦 08/11 12:47
1340F:→ lmf770410: 大家可以回家了 08/11 12:47
1341F:推 chivalry1987: 這個接的到 剛漏掉... 08/11 12:47
1342F:推 g25701973: 一定知道鄉民在關注故意投抖一點 08/11 12:47
1343F:推 star90237: 主審拯救了比賽... 08/11 12:47
1344F:→ jamie3160003: 謝謝 拜拜 08/11 12:48
1345F:→ benlinskyin: 單場MVP:Cano 08/11 12:48
1346F:推 a45: Cano爸是統一的阿Q 08/11 12:48
1347F:→ epw: Montero 真的很.......... 08/11 12:48
1348F:→ s512874690: 今日SV: Cano 08/11 12:48
1349F:推 phoenixamare: 拖了這麼久 最後還是贏了 08/11 12:48
1350F:→ liunwaiqoo: 這隻不就是拿去換松焦油的大物補手嗎? 08/11 12:48
1351F:→ epw: 裁判:今天SV由Britton和Cano共享 08/11 12:48
1352F:推 mepass: Cano用心良苦 08/11 12:48
1353F:推 pirson: Britton: 1R 0ER 爽多賺1K 08/11 12:49
1354F:→ epw: ya 現在變1B 有變瘦了喇.... 08/11 12:49
1355F:→ lmf770410: ===========卡諾價值展露無遺=========== 08/11 12:49
1356F:推 verybiggun: 多丟的一分算誰的??? 08/11 12:49
1357F:推 waiting0801: 最後也真的太刺激了....這劇場XD 還是要謝謝Cano XD 08/11 12:49
1358F:推 yankees733: 沒Cano就被追平了 08/11 12:50
1359F:→ epw: JJ的呀 XD E 08/11 12:50
1360F:→ liunwaiqoo: 陳今天的直球超殺,狀況很好!!!!!! 08/11 12:50
1361F:推 st941101: 建仔以警告這樣! 08/11 12:50
1362F:推 chucky: 多丟的那分算捕手的 08/11 12:51
1363F:→ liunwaiqoo: 陳偉殷生涯對美西球隊真的很殺,FA轉去美西應該很爽 08/11 12:51
1364F:推 O10lOl01O: ===========謝謝你 Cano============== 08/11 12:51
1365F:→ youngsam: 丟分應該沒算ER 08/11 12:51
1366F:推 usausausa: 去條子啊 達比修+黑魔使 08/11 12:54
1367F:推 mepass: 4打席7球5出局 極有效率 08/11 12:54
1368F:推 epw: 今天Cano狀況絕佳 只花了(別人)7球就抓到5個出局數 08/11 12:57
1369F:推 ichiyo: 某人真是不意外,想人肉ID還人肉錯www 馬上亂拿其他球員來 08/11 14:57
1370F:→ ichiyo: 攻擊w 可以算豪洨推文嗎XDDD 08/11 14:58
1371F:推 mike5312: 就說轉去天使 沒人要聽 08/11 15:06